GFSGBSN_prec_cloud_072.txt.gz
Cloud_Cover
100 100 100 100 100 100 100 100 100 100 100 100 100 53 4 100 45 5 3 5 2 5 9 1 12 0 0 0 42 5 30 16 5 5 59 100 100 0 0 21 89 9 23 60 10 3 5
100 100 100 100 100 100 100 100 100 100 100 100 100 100 82 30 87 4 4 5 12 4 3 12 38 44 0 3 5 48 95 28 5 32 100 100 60 0 0 5 8 46 6 2 13 38 3
100 100 100 100 100 100 100 100 100 100 100 100 100 100 100 98 7 100 9 2 2 5 83 44 19 4 0 3 0 4 5 5 6 99 100 100 100 3 66 69 26 5 0 90 62 100 73
100 100 100 100 100 100 100 100 100 100 100 100 100 100 97 62 70 46 72 94 22 13 100 60 3 1 46 0 0 4 2 81 6 54 100 100 41 76 100 1 4 0 4 82 9 88 97
100 100 100 100 92 100 100 100 100 100 100 100 100 100 100 100 100 100 99 100 100 100 100 58 82 42 82 5 2 1 2 9 4 76 100 90 30 96 100 23 16 21 19 94 86 1 2
100 71 100 100 100 100 100 100 100 100 100 100 100 100 100 100 100 100 100 100 100 100 100 100 100 100 100 79 5 5 13 1 5 98 100 5 41 100 100 100 44 100 87 94 98 89 5
100 100 100 100 100 100 100 100 100 100 100 100 100 100 100 100 100 100 100 21 46 58 43 11 6 100 100 8 5 5 4 5 5 60 100 5 86 100 100 100 33 12 24 93 99 17 5
100 100 100 100 100 100 100 100 100 100 100 100 100 100 100 100 100 100 100 100 98 100 98 100 94 33 89 95 14 27 7 56 5 53 100 80 62 100 100 100 37 0 1 3 26 82 0
97 100 100 100 100 100 100 100 100 100 100 100 100 100 100 100 100 100 100 100 100 100 96 100 100 100 100 78 95 10 5 17 18 31 55 10 58 100 100 100 78 2 4 82 94 100 14
98 100 100 100 100 100 100 100 100 100 100 100 100 100 100 100 100 100 100 100 100 100 100 100 100 100 100 50 56 34 5 5 86 21 5 92 10 100 100 100 99 27 90 95 4 13 82
9 80 100 74 12 6 63 70 48 22 100 100 100 100 100 100 100 100 97 99 100 100 60 100 100 85 99 5 61 37 10 5 82 90 7 98 14 100 100 100 100 13 5 5 2 5 17
4 15 14 9 3 4 13 9 5 53 69 33 11 5 36 91 55 69 73 99 27 12 4 6 54 64 28 1 6 51 5 8 99 14 100 94 95 96 100 100 100 18 2 2 0 1 3
3 0 3 2 3 5 5 32 6 13 29 5 66 5 0 5 21 35 99 53 62 17 1 0 1 34 11 4 5 60 33 22 99 42 100 100 94 90 100 100 100 99 5 10 61 62 29
5 0 2 9 8 5 17 66 93 100 100 100 97 100 5 4 5 43 53 98 67 0 1 0 0 0 4 80 65 5 5 7 96 99 100 93 68 100 100 100 100 100 5 33 99 68 36
2 8 6 8 12 8 41 74 100 100 100 100 100 100 80 32 14 72 100 100 33 2 14 5 16 3 9 3 50 5 4 57 56 100 100 100 98 100 68 100 100 100 72 12 100 71 54
47 91 100 100 100 100 100 100 100 100 100 100 100 100 86 50 24 96 100 100 3 0 0 7 49 5 48 10 3 5 26 29 100 100 100 100 100 52 100 100 100 100 100 27 63 44 57
100 100 100 100 100 100 100 100 100 100 100 100 100 100 98 89 36 100 100 35 1 0 0 59 100 81 48 99 1 0 6 87 100 100 100 100 100 94 100 98 100 100 100 83 24 9 5
100 100 100 100 100 100 100 100 100 100 100 100 100 100 98 100 92 100 100 5 0 0 0 85 88 100 99 59 100 2 3 13 100 100 100 100 100 55 100 100 100 100 100 100 100 14 99
100 100 100 100 100 100 100 100 100 100 100 100 100 100 100 100 86 100 86 33 12 5 4 5 1 100 100 99 99 100 12 66 100 100 100 100 68 99 100 100 98 100 100 100 100 5 6
100 100 100 100 100 100 100 100 100 100 100 100 100 100 100 100 21 90 91 83 37 5 5 0 4 87 85 100 32 96 94 100 100 100 100 100 100 95 52 93 92 42 53 100 100 59 34
100 100 100 100 100 100 100 100 100 100 100 100 100 86 33 100 100 77 100 83 17 5 1 0 11 34 100 70 95 88 100 99 100 100 100 100 100 92 80 96 93 53 97 100 100 76 83
100 100 100 100 100 100 100 100 100 100 100 100 100 95 88 93 100 100 82 73 64 89 7 0 5 5 24 84 100 100 99 94 100 100 100 100 100 100 100 77 61 100 100 100 100 60 100
100 100 99 99 100 100 100 100 100 100 100 100 100 78 100 53 99 82 34 62 83 51 21 4 0 0 9 75 100 100 100 70 100 100 100 100 100 100 100 100 100 38 74 100 100 100 100
100 92 100 100 95 100 100 100 100 100 100 100 100 100 100 100 40 68 65 69 71 6 16 30 92 0 0 100 100 100 100 100 100 100 100 100 100 100 100 100 78 100 89 100 100 100 100
5 5 5 5 19 100 100 100 100 100 100 100 100 100 54 40 81 96 93 94 92 100 100 28 40 0 4 100 100 100 100 100 100 100 100 100 100 100 100 100 89 26 100 100 100 100 100
84 100 84 10 97 97 50 100 100 100 100 100 100 100 100 16 47 100 100 100 100 55 71 2 1 77 32 24 100 100 100 100 100 100 100 100 100 97 100 100 100 100 100 100 100 100 100
100 77 78 96 94 55 68 10 60 100 100 100 100 100 100 99 99 100 92 100 100 100 20 3 1 89 100 64 100 100 100 98 100 100 100 100 100 100 100 100 100 100 100 100 77 100 100
66 62 5 28 100 100 99 80 31 20 100 100 100 100 100 100 93 100 100 94 100 81 6 30 70 37 93 36 77 83 53 10 85 100 100 100 100 100 100 100 98 100 100 95 99 100 100
100 97 56 100 100 100 100 100 100 59 78 100 100 100 100 100 100 100 100 100 100 100 100 76 0 64 2 76 43 98 98 33 26 100 100 100 100 100 100 100 100 100 100 100 100 100 100

GFSGBSN_prec_cloud_075.txt.gz
Cloud_Cover
70 83 98 100 100 100 100 100 100 100 100 100 100 100 100 100 100 100 100 100 60 15 7 5 5 62 13 4 0 0 0 2 5 0 2 4 5 93 100 100 2 94 97 42 4 3 4
59 58 98 69 100 100 100 100 100 100 100 100 100 100 100 100 100 100 100 100 99 15 78 6 65 85 9 35 2 1 0 0 5 5 2 4 31 100 100 21 5 5 5 0 3 22 11
100 100 98 94 81 100 100 100 100 100 100 100 100 100 100 100 100 100 100 100 100 56 98 5 52 72 93 39 3 5 1 22 2 5 2 5 5 100 97 5 5 98 95 0 0 40 6
100 100 100 63 81 93 100 97 100 100 100 100 100 100 100 100 100 100 100 100 100 46 5 15 44 79 28 21 33 0 4 5 0 2 2 2 4 100 82 2 52 100 96 0 0 28 53
100 100 100 100 100 99 78 83 100 98 100 100 100 100 100 100 100 100 100 100 100 65 5 2 73 30 85 76 100 44 43 73 76 1 2 4 5 100 4 5 66 100 99 32 35 6 5
100 100 100 100 100 100 100 100 100 100 100 100 100 100 100 100 100 100 100 100 98 100 4 11 61 17 100 100 100 100 100 100 95 0 0 5 5 3 13 5 72 100 100 41 89 19 5
100 100 100 100 100 100 100 100 100 100 100 100 100 100 100 100 100 100 100 100 100 100 100 97 41 33 78 100 100 100 53 22 33 2 0 5 5 4 96 43 63 100 100 64 5 99 99
100 100 100 100 100 100 100 100 100 100 100 100 100 100 100 100 100 100 100 100 100 100 100 100 6 44 96 98 100 100 100 100 97 5 5 5 48 5 0 22 100 100 100 100 4 100 4
100 98 100 100 100 92 91 100 100 100 100 100 100 100 100 100 100 100 100 100 100 97 74 100 100 36 98 4 99 100 100 100 100 100 3 4 29 5 38 32 100 100 100 100 30 57 5
99 48 34 98 100 88 100 45 98 100 100 100 100 100 100 100 100 100 100 100 99 92 100 100 100 22 84 97 99 100 100 100 85 27 5 5 12 5 100 100 100 100 100 100 44 5 0
100 100 100 100 99 92 97 97 87 19 100 100 100 100 100 100 100 100 100 100 99 100 100 85 68 100 100 100 100 100 100 100 100 100 4 35 45 21 5 90 100 100 100 100 84 0 0
95 16 73 54 50 100 53 5 5 5 25 100 100 100 100 100 100 100 100 100 100 100 84 100 100 100 100 100 100 100 100 100 100 100 6 6 27 5 20 6 97 100 100 100 100 4 0
5 5 5 14 6 10 95 100 70 5 6 100 98 100 50 100 100 35 80 75 100 100 100 100 100 100 100 100 100 100 100 100 93 44 5 77 34 8 32 98 100 100 100 100 100 5 0
5 48 38 5 5 5 5 5 10 6 5 14 57 30 6 6 36 82 87 62 90 99 98 100 100 100 100 97 94 47 22 50 5 5 5 12 43 99 99 53 100 100 100 100 100 15 39
5 5 5 3 0 5 5 24 99 100 100 82 97 92 97 99 4 33 100 100 55 4 96 100 38 18 71 100 44 98 5 5 25 5 3 7 96 100 24 84 100 100 100 82 100 100 80
5 5 5 0 3 5 25 74 21 100 100 100 100 100 100 99 24 67 100 26 8 0 0 4 1 47 95 100 56 5 28 5 5 5 99 85 84 95 100 91 100 86 100 100 100 100 88
5 5 5 5 46 64 100 100 100 100 100 100 100 100 96 100 100 76 100 99 3 0 0 0 2 59 96 16 100 88 18 3 5 67 100 93 24 99 100 15 100 100 100 100 100 100 97
5 5 5 78 100 100 100 100 100 100 100 100 100 100 100 100 100 100 95 100 5 3 0 0 6 3 94 100 100 27 49 86 5 2 8 11 46 100 98 89 100 100 100 100 100 100 100
5 5 13 100 100 100 100 100 100 100 100 100 100 100 100 82 100 100 100 86 72 35 2 0 0 98 68 86 99 62 97 34 63 5 5 45 100 100 100 100 99 99 89 100 100 100 100
14 100 100 100 100 100 100 100 100 100 100 100 100 100 100 100 95 100 100 73 70 12 3 0 0 62 100 30 100 72 100 100 100 100 9 100 100 60 100 100 100 100 100 100 100 19 100
100 100 100 100 100 100 100 100 100 100 100 100 100 100 93 100 100 84 71 57 40 78 7 3 0 0 96 100 100 100 100 82 100 100 100 16 95 100 100 100 100 100 100 99 23 100 68
100 100 100 100 100 100 100 100 100 100 100 100 100 99 96 92 100 100 88 100 27 53 20 33 0 0 65 100 100 100 92 100 78 74 51 20 90 100 100 100 100 100 100 10 29 60 100
100 100 100 100 100 100 100 100 100 100 100 100 100 100 100 50 96 69 100 89 16 84 37 36 6 0 4 1 97 100 100 100 100 100 100 99 93 100 100 100 100 95 100 99 60 37 100
100 100 100 100 100 100 100 100 100 100 100 100 100 100 100 100 37 82 72 84 47 100 99 99 5 1 0 48 10 100 100 100 100 100 94 98 94 100 100 100 100 62 100 85 28 93 100
41 61 84 100 100 100 100 100 100 100 100 100 100 100 100 91 100 87 86 66 48 100 96 61 5 5 3 100 97 100 84 100 100 99 100 100 100 100 100 100 100 100 100 100 100 100 100
91 100 90 95 99 95 70 98 100 100 100 100 100 100 100 100 86 100 100 73 100 56 100 32 100 94 5 72 97 100 100 100 100 100 100 100 100 100 100 100 100 100 100 100 100 100 100
100 100 100 100 100 100 95 9 25 100 100 100 100 100 100 100 100 100 100 13 96 100 100 93 100 100 16 7 2 86 100 100 100 100 100 100 100 100 100 100 100 100 100 100 100 100 100
100 100 100 100 100 100 100 98 52 55 100 100 100 100 100 100 98 100 100 78 64 100 100 100 100 46 85 20 0 4 72 100 98 75 100 70 100 100 100 100 100 100 100 100 98 100 100
100 100 100 100 99 95 100 100 93 5 100 100 100 100 100 100 100 100 100 99 28 99 78 100 66 100 21 2 0 5 5 100 23 82 99 90 100 100 100 100 100 100 100 100 100 100 100

GFSGBSN_prec_cloud_078.txt.gz
Cloud_Cover
37 78 25 11 39 100 58 10 5 5 94 100 100 100 100 100 100 100 100 64 18 69 90 100 68 100 59 67 3 4 5 5 2 0 0 1 0 0 0 1 29 1 0 3 96 2 5
77 100 98 100 71 78 72 5 45 5 35 100 100 100 100 100 100 100 100 100 100 50 88 100 100 100 98 73 3 5 5 5 5 5 4 5 5 0 0 0 79 0 0 5 26 2 2
96 100 91 100 100 100 88 78 90 20 10 41 100 100 100 100 100 100 100 100 100 46 78 100 100 100 100 42 5 26 5 4 16 0 4 0 2 0 5 0 0 0 0 5 100 5 0
100 100 100 98 100 100 100 100 100 100 90 10 6 98 100 100 100 100 100 100 99 6 69 10 98 100 100 100 65 5 5 0 19 4 0 23 3 0 0 0 0 0 0 9 91 4 5
100 99 100 100 100 100 100 100 100 100 100 73 32 19 79 100 100 100 100 100 98 5 5 46 97 100 100 100 100 39 19 4 5 100 86 100 84 2 0 0 0 0 0 7 5 72 69
100 100 100 100 100 100 100 100 100 100 100 98 69 93 97 95 100 100 100 100 100 24 6 37 93 100 100 100 100 26 39 7 46 91 100 100 100 0 2 0 0 0 3 5 99 100 98
100 100 100 100 100 100 100 100 100 100 100 100 100 100 100 100 98 100 100 100 100 100 100 31 59 94 100 100 100 100 5 5 5 57 100 100 100 31 4 2 5 0 0 3 99 100 100
100 100 100 100 100 100 100 99 100 100 100 100 99 100 100 100 100 100 100 100 96 91 100 100 62 82 100 100 100 100 100 52 100 100 100 100 100 98 100 17 5 0 0 2 99 100 100
100 100 100 100 100 100 100 98 100 100 100 100 100 100 100 100 100 100 100 100 100 100 85 100 100 58 100 56 100 100 100 100 92 12 91 100 100 100 100 5 5 26 3 3 49 100 100
100 100 100 100 100 100 100 100 100 100 100 100 100 100 100 100 100 100 100 100 100 100 100 100 100 74 65 56 86 100 100 100 65 5 5 41 100 100 81 5 7 46 5 97 25 99 100
100 100 100 100 100 100 100 100 100 100 100 100 100 100 100 100 100 100 100 100 100 100 92 100 100 100 100 100 89 100 100 100 100 100 40 100 100 100 67 100 46 78 5 98 91 95 100
100 100 100 100 100 100 100 100 100 100 100 100 100 100 100 100 100 100 100 100 100 100 96 30 100 100 100 100 100 100 100 100 100 100 87 100 100 100 100 75 52 95 67 24 96 93 100
100 91 86 35 100 91 19 100 100 100 100 98 84 97 96 100 100 99 100 100 100 100 100 100 100 8 95 100 100 100 100 100 100 100 100 100 100 100 100 100 98 98 92 35 5 4 92
98 12 16 54 71 25 13 8 73 100 14 98 100 100 39 92 99 19 97 68 100 100 100 100 100 100 100 100 100 100 100 100 100 100 100 100 100 100 100 96 100 100 97 70 29 2 87
100 95 66 6 5 5 5 5 15 5 5 68 99 25 39 43 5 1 42 100 7 72 100 100 99 100 65 100 100 100 100 100 100 100 100 100 100 100 99 92 86 98 55 92 5 5 92
49 11 5 21 5 5 5 5 5 82 100 85 76 98 100 2 98 46 99 13 2 1 6 100 68 25 47 31 100 100 100 100 100 100 100 100 100 100 100 98 86 13 92 42 26 37 56
61 44 10 8 73 5 2 5 7 65 52 37 100 100 85 53 100 100 89 45 0 0 0 0 0 56 100 98 64 79 99 100 100 100 100 100 100 100 100 15 96 100 100 98 99 65 7
6 1 5 5 5 5 0 5 5 30 100 100 100 100 100 82 100 100 78 5 5 2 5 2 0 0 0 100 100 100 35 100 100 100 100 100 96 51 100 100 58 20 90 67 8 100 61
4 2 5 5 5 2 0 5 94 100 100 100 100 100 100 100 99 100 100 98 19 5 2 5 5 0 0 74 65 40 60 100 100 94 60 88 53 63 100 79 23 98 99 100 47 100 37
4 5 4 4 4 4 10 77 100 100 100 100 100 100 100 100 68 69 100 100 100 55 4 5 3 1 2 1 15 54 100 100 100 78 99 100 48 3 24 60 76 69 100 100 100 100 100
100 100 100 100 96 100 100 100 100 100 100 100 100 100 63 95 100 75 70 98 100 100 100 46 5 4 5 5 0 94 100 100 100 100 45 100 71 5 2 100 100 100 61 100 100 100 100
100 100 100 100 100 100 100 100 100 100 100 100 100 100 100 26 86 100 100 100 78 82 79 68 5 38 5 0 1 54 100 100 100 100 48 87 86 64 43 92 100 100 96 100 100 100 100
100 100 100 100 100 100 100 100 100 100 100 100 100 80 92 57 93 96 100 100 99 100 61 100 100 98 5 0 0 4 42 100 100 100 100 100 89 35 0 5 100 98 9 100 100 100 100
100 100 100 100 100 100 100 100 100 100 100 100 100 100 100 100 77 72 88 98 100 100 100 100 98 50 95 2 1 100 3 30 59 100 100 100 100 100 74 77 100 9 100 100 100 100 100
100 100 100 100 100 100 100 100 100 100 100 100 100 100 100 100 100 100 100 96 100 100 99 100 100 100 32 64 97 19 90 93 69 100 100 100 100 80 99 12 39 62 96 100 100 100 100
100 100 100 100 100 100 100 100 100 100 100 100 100 100 100 100 95 99 94 69 39 81 94 100 100 100 95 99 93 40 61 55 77 100 100 100 100 100 66 24 17 95 100 100 100 100 100
17 83 84 99 99 100 100 100 100 100 100 100 100 100 100 100 100 88 61 93 91 100 100 100 100 100 46 45 59 100 88 65 94 100 100 100 100 100 100 39 70 99 100 100 100 32 100
86 100 100 100 100 100 100 96 100 100 100 100 100 100 100 100 100 100 97 93 100 100 94 100 100 83 15 46 20 38 99 36 100 100 100 100 100 100 100 93 100 100 100 100 100 100 100
100 100 100 100 100 100 100 100 100 100 100 100 100 100 100 100 100 98 57 100 100 100 100 100 100 32 5 5 5 50 70 100 100 100 100 100 100 100 100 78 100 100 100 100 100 99 100

GFSGBSN_prec_cloud_081.txt.gz
Cloud_Cover
100 100 92 27 5 5 6 5 5 5 5 5 5 5 5 5 59 99 100 100 100 99 94 97 43 41 71 99 89 100 5 0 1 0 4 6 0 0 0 0 0 0 0 0 0 0 2
98 35 98 78 100 98 44 6 13 5 5 5 5 5 5 5 5 31 97 100 100 98 98 87 79 40 66 99 100 99 99 5 5 1 2 1 9 2 0 0 0 0 0 0 0 0 5
54 5 91 100 82 73 96 38 37 97 25 17 5 5 5 92 5 5 89 100 100 92 52 100 99 99 100 100 89 100 100 53 37 12 0 0 3 5 0 5 1 0 0 0 0 0 7
100 98 99 87 100 85 100 100 100 22 86 100 50 74 100 38 30 5 9 94 100 72 98 10 82 100 100 100 16 100 98 100 7 52 23 1 21 39 25 15 59 5 0 0 0 18 47
100 100 100 100 100 100 100 100 100 79 24 32 52 54 100 100 77 41 5 8 45 100 100 99 42 66 100 100 30 84 100 100 64 90 52 28 5 24 100 100 100 3 0 0 0 0 5
100 100 100 100 100 100 100 100 100 100 100 39 57 84 100 100 100 100 12 96 6 5 98 94 96 42 95 100 99 96 100 100 98 100 100 6 5 25 13 100 100 5 5 3 0 0 0
100 100 100 100 83 100 100 100 100 100 100 100 79 100 100 100 100 100 100 73 78 5 43 100 100 100 99 100 96 5 57 100 100 100 100 18 53 67 5 98 100 55 88 5 5 5 0
100 88 100 100 100 100 100 100 100 100 100 100 79 100 100 100 100 100 100 97 93 83 93 100 100 100 100 99 87 89 7 99 100 100 100 22 91 19 5 100 97 100 100 24 5 5 0
98 100 100 100 100 100 100 100 100 100 100 100 84 100 100 100 100 100 100 100 100 100 97 99 100 100 100 96 96 100 71 100 100 100 100 100 100 14 5 100 100 100 100 86 17 5 5
5 100 100 100 100 100 100 100 100 100 100 100 100 100 100 100 100 100 100 100 100 99 93 100 100 100 100 68 48 100 100 100 100 100 100 12 100 95 4 6 6 100 100 61 37 5 23
100 73 100 100 100 100 98 100 100 100 100 100 100 100 99 100 100 100 100 100 100 100 63 100 100 100 100 100 89 100 100 74 10 98 100 99 100 42 1 98 97 100 100 35 66 29 90
100 100 94 100 100 100 100 64 100 100 100 100 100 100 99 100 100 100 100 100 100 100 100 100 100 100 100 100 100 100 100 74 100 100 100 100 100 16 86 100 100 100 100 100 54 81 90
80 96 60 100 100 98 40 6 5 79 100 100 100 100 100 100 100 100 100 100 100 100 100 99 44 100 100 100 100 100 100 100 90 100 76 100 100 100 30 21 74 100 100 100 87 5 53
77 79 100 100 88 26 20 26 46 5 23 100 100 100 100 100 100 100 100 100 85 100 100 73 84 5 100 100 100 100 100 100 100 100 98 100 100 100 100 100 100 100 99 74 89 50 89
73 100 100 100 100 99 27 5 8 100 100 100 100 100 100 100 100 100 100 69 95 95 59 100 43 19 4 87 100 100 100 100 100 100 100 100 100 100 100 100 100 100 8 88 5 43 12
100 96 72 80 99 38 8 5 5 20 100 100 100 100 100 100 100 100 100 34 15 6 64 46 100 100 64 5 19 100 100 100 100 100 100 100 100 100 100 100 60 82 100 92 36 100 59
100 100 73 100 100 92 51 16 12 3 20 72 100 100 100 100 9 100 98 96 98 5 12 45 6 5 5 1 4 46 67 100 100 100 100 100 100 100 100 93 91 100 100 100 100 100 46
69 94 12 5 5 10 62 57 5 0 30 27 100 100 92 100 99 100 100 50 5 3 0 1 2 0 4 5 4 5 78 100 100 100 100 100 100 100 100 100 100 100 100 100 100 77 100
57 7 5 5 7 14 27 5 5 0 35 59 100 100 100 76 93 100 100 100 43 5 1 5 2 1 0 2 2 4 6 100 100 100 100 100 100 100 100 100 100 100 100 100 100 100 100
5 5 5 5 5 3 2 1 1 0 41 81 100 100 100 100 15 5 90 92 100 88 6 2 5 4 3 2 0 3 0 100 62 91 100 100 100 93 100 100 100 100 100 100 100 100 100
49 5 5 5 21 74 95 47 5 3 4 96 100 100 100 95 100 99 70 86 100 100 92 71 57 2 0 5 1 1 0 13 84 89 98 100 100 86 53 100 100 100 100 100 100 71 6
100 100 93 100 100 100 100 96 49 5 44 100 100 100 100 98 66 100 94 100 100 99 100 94 82 100 10 15 4 0 0 1 5 98 100 100 100 39 100 85 35 59 100 100 98 87 5
100 100 100 100 100 100 100 100 100 100 100 100 100 100 100 91 61 97 100 36 97 100 100 100 73 99 48 5 1 1 6 1 3 71 100 100 100 100 5 4 78 99 48 94 44 6 29
100 100 100 100 100 100 100 100 100 100 100 100 100 100 100 98 100 92 100 100 100 100 100 100 83 65 99 93 100 47 84 5 0 28 100 100 100 100 80 82 92 0 0 12 35 84 100
100 100 100 100 100 100 100 100 100 100 100 100 100 100 100 100 100 100 100 100 100 100 100 100 85 100 100 100 77 14 4 5 3 94 89 100 100 100 100 45 7 0 0 92 44 1 86
100 100 100 100 100 100 100 100 100 100 100 100 100 100 100 100 100 100 100 100 100 100 100 100 100 100 100 100 100 100 56 26 0 92 100 100 100 100 100 97 40 1 0 89 100 42 100
100 100 100 100 100 100 100 100 100 100 100 100 100 100 100 100 100 100 100 100 100 100 100 100 100 100 81 100 100 100 91 42 8 60 100 100 100 100 100 100 90 100 5 31 100 24 100
100 100 100 100 100 100 100 100 100 100 100 100 100 100 100 100 100 100 100 100 100 100 100 100 93 7 41 34 49 87 96 98 3 87 100 100 100 100 100 100 93 78 100 80 55 100 100
5 12 58 93 100 100 100 100 100 100 100 100 100 100 100 100 100 100 100 100 100 100 100 100 100 94 10 5 7 5 5 25 80 92 100 100 100 100 100 100 100 100 100 100 100 100 100

GFSGBSN_prec_cloud_084.txt.gz
Cloud_Cover
94 100 100 100 100 100 39 7 5 5 5 5 5 44 59 5 1 0 0 0 5 4 2 48 97 100 54 97 94 77 86 19 9 19 4 3 0 0 0 0 2 1 0 0 0 0 0
100 100 100 100 100 76 92 99 93 5 5 5 5 6 82 5 4 2 0 0 0 5 5 62 100 92 99 98 100 100 100 50 16 11 8 0 0 0 0 0 2 1 5 5 5 0 0
100 100 100 98 71 5 10 5 5 5 5 5 5 5 5 5 5 1 0 0 3 3 2 5 100 100 100 100 100 100 97 80 40 99 68 4 5 5 0 0 0 0 3 64 5 0 0
99 100 100 100 100 100 100 98 66 6 5 12 5 7 50 31 31 70 7 4 0 0 5 5 18 100 99 100 100 100 18 100 75 99 87 37 20 34 5 1 5 4 47 53 2 0 0
100 100 100 100 100 100 100 100 89 76 15 85 45 83 100 100 76 39 73 22 5 5 2 2 69 58 100 100 100 100 100 100 100 100 56 42 96 100 13 16 4 5 25 100 5 3 0
98 99 100 100 100 100 100 100 100 34 67 77 78 95 86 100 97 15 77 21 7 5 16 85 30 97 60 100 100 100 70 92 100 100 50 100 79 58 100 5 5 5 17 98 23 5 3
100 100 5 100 100 100 100 100 99 68 94 77 39 100 100 100 100 96 99 100 59 5 5 100 100 89 69 100 100 100 42 100 100 100 100 100 100 100 100 63 100 15 38 100 100 5 4
87 6 58 81 50 100 100 100 100 100 73 44 93 100 100 100 100 96 100 95 95 76 86 47 100 100 100 70 89 100 99 100 100 100 97 27 90 100 95 5 90 97 8 99 100 99 42
88 5 5 41 100 100 100 100 100 100 94 78 43 100 100 100 100 100 100 100 84 78 100 100 100 100 100 31 40 100 100 100 100 100 98 71 100 100 98 51 100 98 43 76 99 66 100
100 99 65 5 100 100 100 100 100 79 19 36 100 100 100 100 100 100 100 100 100 95 100 100 97 100 100 27 19 100 100 100 100 100 100 25 100 100 100 96 100 100 53 5 38 100 100
100 100 100 73 100 100 100 100 100 100 70 5 59 100 100 100 100 100 100 100 100 100 99 99 100 100 100 100 100 100 100 100 100 100 100 100 100 100 40 99 6 92 98 6 6 100 100
62 36 28 6 41 100 100 100 100 100 19 5 9 95 100 100 100 100 100 97 100 100 91 62 100 100 100 100 100 100 100 100 100 100 100 100 100 100 100 95 65 100 68 7 5 100 100
82 35 93 83 56 28 99 100 100 20 4 4 5 4 98 100 100 100 100 100 100 85 58 100 100 100 100 100 100 100 100 100 100 100 100 100 100 100 100 100 57 88 98 5 5 99 100
95 5 22 34 6 100 100 100 34 10 6 5 3 2 15 100 100 100 100 100 87 12 91 100 100 100 100 100 100 100 100 100 100 100 100 100 100 100 99 100 100 55 66 5 73 100 100
100 98 90 8 100 86 57 45 100 96 5 4 4 37 82 100 100 100 100 100 16 83 100 100 100 100 100 100 100 100 100 100 100 100 100 100 100 100 100 100 100 99 99 100 92 5 53
93 5 44 62 97 100 96 100 100 10 4 2 29 64 76 74 100 100 96 100 62 86 100 100 100 57 100 100 100 100 100 100 100 100 100 100 100 100 100 100 81 5 52 67 23 46 100
96 48 50 100 100 21 62 100 100 50 5 5 66 100 54 100 98 96 91 77 78 100 100 100 100 100 56 100 100 100 100 100 100 100 100 100 100 100 100 100 100 100 84 75 88 99 100
95 96 91 96 60 87 100 100 100 99 18 5 48 100 11 94 100 98 100 100 100 100 100 100 100 100 100 69 6 66 86 100 100 94 100 100 100 98 100 100 100 99 50 99 76 44 7
100 98 62 16 93 12 39 38 98 36 92 5 100 94 94 48 91 100 100 100 100 100 100 100 100 100 100 100 27 4 16 100 100 100 100 97 100 100 100 100 100 100 100 96 34 48 11
44 48 48 82 100 57 9 46 95 5 36 23 100 100 89 100 28 35 80 71 100 100 100 100 100 100 98 100 95 21 8 2 75 100 87 50 5 99 100 100 100 97 96 100 100 100 100
96 6 5 5 5 5 5 5 5 5 27 30 100 98 84 90 96 100 42 35 60 100 100 100 90 79 86 17 5 2 1 0 0 14 7 34 40 78 65 76 100 100 100 100 100 100 100
35 6 5 6 6 5 9 5 5 5 2 64 100 98 62 99 87 100 98 86 44 58 82 48 36 6 41 5 5 5 5 2 1 5 5 95 92 82 5 99 100 100 100 100 100 100 100
9 35 53 97 100 94 100 100 88 29 60 66 99 96 98 27 47 92 54 28 7 5 52 49 95 95 28 31 100 100 57 36 31 5 31 76 100 67 4 31 33 100 100 100 100 100 100
100 100 100 100 100 100 100 100 100 100 61 22 50 85 100 98 80 25 9 42 95 6 75 100 100 100 97 100 64 69 83 5 5 5 5 13 98 100 38 100 100 2 32 99 99 100 46
100 100 100 100 100 100 100 100 100 100 94 95 56 100 100 100 71 100 100 98 93 100 100 100 100 100 100 100 100 98 25 5 1 0 0 1 33 98 96 100 100 16 40 29 36 17 63
100 100 100 100 100 100 100 100 100 100 100 100 100 98 100 100 20 56 100 100 100 100 100 100 100 100 100 100 100 100 100 14 5 2 0 2 46 51 100 100 100 48 100 99 100 1 0
100 100 100 100 100 100 100 100 100 100 100 100 100 100 100 100 100 100 100 100 100 100 100 100 100 100 100 100 100 98 75 100 52 2 76 100 99 100 100 100 100 99 100 100 75 5 36
100 100 100 100 100 100 100 100 100 100 100 100 100 100 100 100 100 100 100 100 100 100 100 100 100 100 100 100 100 100 99 16 8 5 2 4 98 100 100 100 100 100 100 100 100 27 5
100 100 100 100 100 100 100 100 100 100 100 100 100 100 100 100 100 100 100 100 100 100 100 100 100 100 100 92 60 54 13 40 69 53 5 1 8 100 100 100 100 100 100 100 100 100 42

GFSGBSN_prec_cloud_087.txt.gz
Cloud_Cover
100 100 100 100 100 100 100 96 100 93 100 100 100 91 67 33 5 5 1 0 0 0 0 5 0 3 7 5 100 100 100 100 100 56 81 87 17 22 34 5 1 0 0 0 0 0 0
100 100 100 100 100 100 100 100 100 100 100 100 98 20 5 5 4 5 3 0 0 0 0 0 0 1 38 9 100 100 100 100 100 71 89 50 74 86 59 5 5 0 0 0 0 0 0
100 100 100 100 100 100 100 100 100 89 100 100 71 5 5 5 5 5 5 5 0 0 0 12 74 35 14 64 49 100 100 100 100 100 100 100 44 82 79 8 5 0 5 0 0 0 3
100 100 100 100 100 100 100 100 100 100 100 5 5 5 5 5 5 5 5 5 1 0 0 58 94 85 5 16 5 82 99 100 100 100 100 100 100 18 100 44 5 4 5 3 5 5 5
100 100 100 100 100 100 100 100 100 100 100 66 5 1 4 5 5 13 72 11 5 5 4 6 52 83 11 82 41 41 22 100 100 100 100 82 78 99 100 100 87 3 35 5 5 5 5
100 100 100 100 100 100 100 100 100 100 100 100 5 5 0 5 5 5 87 96 33 5 5 79 82 37 30 84 78 5 5 70 100 100 82 82 87 100 100 100 97 5 100 8 10 10 5
26 100 100 95 100 100 96 100 100 100 100 100 22 1 0 4 7 54 5 79 79 10 5 5 39 85 89 100 31 86 76 69 100 100 100 88 79 100 100 100 31 9 100 17 5 5 22
100 100 100 100 100 100 100 99 100 100 100 100 100 5 0 0 5 20 96 100 92 5 74 16 11 65 100 68 10 50 100 94 100 100 100 5 82 100 100 100 70 74 100 100 2 5 72
100 100 100 91 89 100 98 95 100 100 100 100 76 52 0 0 5 33 48 80 73 6 56 100 22 10 100 72 54 100 47 100 100 95 100 90 98 100 100 100 85 62 100 92 4 61 100
100 85 45 100 100 24 26 29 100 100 100 96 18 5 4 0 1 5 32 100 85 98 90 100 93 21 72 89 86 100 4 100 100 100 100 100 99 100 100 100 100 99 100 42 93 100 100
100 96 4 40 23 5 7 6 53 12 74 100 100 15 5 1 27 5 28 100 100 100 30 99 100 96 100 100 100 100 100 100 100 100 100 100 100 100 100 100 100 100 100 52 100 100 100
70 7 66 67 12 5 4 5 92 100 100 100 66 4 5 1 15 7 8 100 77 100 38 91 100 72 100 100 100 100 100 100 100 100 81 100 100 100 100 100 100 100 100 82 74 87 100
100 89 81 5 5 5 12 3 88 95 100 61 0 2 3 5 15 0 96 73 100 81 15 100 100 100 100 100 100 100 100 100 100 100 96 100 100 100 100 100 100 100 100 95 5 58 99
100 16 5 4 5 1 5 5 95 98 100 7 4 5 0 2 5 4 56 70 100 77 97 100 100 100 100 100 100 100 100 100 100 100 100 99 100 100 100 100 100 100 100 88 51 34 100
100 99 100 95 91 18 6 86 39 29 59 94 46 7 29 1 5 22 5 38 2 100 100 100 100 100 100 100 100 100 100 100 100 100 100 100 100 100 100 100 100 100 100 100 43 34 80
100 88 14 3 4 5 5 89 100 100 100 100 5 22 3 0 5 45 65 0 5 31 100 100 100 100 100 100 100 100 100 100 100 100 100 100 100 100 100 100 100 100 100 91 8 5 62
56 100 92 96 62 73 24 89 100 100 93 100 9 13 1 0 8 89 99 3 5 5 99 100 100 100 100 100 100 100 100 100 100 99 100 77 100 100 100 100 100 100 68 98 6 5 16
73 63 77 78 100 100 100 100 100 8 99 39 19 98 90 5 88 87 100 43 2 100 100 100 100 100 100 100 100 100 100 100 100 99 94 100 97 100 100 100 100 100 100 100 43 5 5
97 7 77 98 100 100 100 94 98 45 100 83 98 96 93 76 99 100 97 83 26 100 100 100 100 100 100 100 99 100 100 100 100 100 100 100 68 100 100 100 100 100 73 11 18 5 5
100 100 97 100 97 97 32 91 100 100 100 100 98 89 60 100 100 84 79 56 99 100 100 34 91 100 100 100 100 100 100 100 100 100 100 86 100 100 100 100 100 100 100 100 87 4 18
52 100 100 100 98 70 80 93 8 100 100 100 100 83 27 85 98 100 96 73 100 100 100 100 78 100 100 100 100 100 100 98 100 100 100 100 60 97 100 100 100 100 100 99 5 4 6
99 100 100 100 100 23 42 5 66 50 84 100 100 45 98 13 43 98 100 98 95 100 100 100 100 100 100 100 100 100 100 98 10 5 5 90 100 93 93 100 100 100 100 100 98 98 4
63 21 28 6 5 5 5 5 37 97 26 98 95 36 27 59 30 100 64 10 42 54 50 100 100 100 100 100 100 100 76 58 32 5 5 5 99 100 13 7 13 31 97 99 87 98 64
9 5 5 27 98 100 100 5 5 5 41 62 77 63 70 96 5 42 16 59 57 11 3 5 67 98 100 98 73 82 29 5 12 6 5 9 73 60 21 5 52 0 2 6 40 5 0
98 98 100 100 100 100 100 100 97 5 70 85 93 76 89 96 15 5 56 90 50 5 16 6 11 98 100 92 100 92 69 51 4 3 2 2 13 91 19 5 0 0 0 86 24 69 4
100 100 100 100 100 100 100 100 100 99 11 99 100 50 64 97 11 3 5 12 65 82 91 82 100 100 100 100 100 100 84 98 6 7 2 0 3 62 35 68 67 0 100 100 82 4 11
100 100 100 100 100 100 100 100 100 100 100 88 100 81 82 100 81 97 10 16 59 100 100 100 100 100 100 100 100 100 90 72 49 5 76 90 99 100 100 100 13 3 100 100 100 5 98
100 100 100 100 100 100 100 100 100 100 100 100 100 100 71 100 68 96 100 99 100 95 99 100 100 100 100 100 100 84 7 17 97 96 23 6 40 81 100 100 77 85 100 100 100 96 100
100 100 100 100 100 100 100 100 100 100 100 100 100 100 100 100 100 100 100 100 100 100 100 100 100 99 100 100 74 20 56 96 98 90 86 36 2 4 9 53 100 100 100 100 100 100 100

GFSGBSN_prec_cloud_093.txt.gz
Cloud_Cover
22 18 73 41 16 5 59 92 100 100 82 79 100 100 100 100 100 100 100 100 100 100 100 91 100 99 100 19 82 8 4 1 0 0 0 1 0 4 5 20 51 100 100 100 100 54 50
94 100 96 100 13 34 86 50 85 100 91 97 100 100 100 100 100 100 100 100 100 100 100 100 100 100 100 100 51 10 5 1 0 0 0 1 5 0 2 100 89 100 100 84 100 100 28
9 31 32 24 100 44 96 12 53 25 66 100 100 63 100 100 100 100 100 100 100 100 100 100 97 90 75 94 87 4 5 0 0 0 0 0 5 3 11 99 100 100 100 98 100 38 7
100 100 100 100 100 97 100 100 100 49 40 18 99 100 100 100 100 100 100 100 100 100 100 100 100 100 100 98 16 6 5 0 0 0 2 2 5 5 18 96 89 100 100 100 100 76 52
96 80 100 100 100 100 100 100 100 94 59 7 5 35 100 100 100 100 100 100 100 100 100 100 100 100 100 95 99 51 4 4 0 0 2 5 5 32 63 5 37 100 100 100 100 100 100
86 80 100 100 100 100 100 100 100 100 100 100 100 93 38 97 100 100 100 100 100 100 100 100 100 100 100 91 15 6 0 0 0 0 5 5 40 6 17 12 39 100 100 100 100 100 100
78 77 83 14 5 5 99 79 100 41 92 100 100 100 51 100 100 100 100 100 100 74 100 100 100 100 96 91 52 16 0 1 3 5 2 10 66 5 94 67 100 100 98 100 97 100 100
32 6 20 67 39 21 58 29 4 5 24 94 5 100 100 75 100 100 97 100 97 17 7 37 53 20 88 12 5 0 5 43 27 7 80 14 3 76 100 100 98 100 100 100 100 60 59
68 26 9 47 48 33 25 100 50 65 12 100 57 76 76 50 95 100 100 42 98 42 4 40 14 4 3 3 0 3 0 70 87 99 62 6 44 100 95 98 47 100 100 100 100 100 84
76 98 33 82 20 31 15 14 55 88 5 58 83 100 92 100 100 100 55 100 100 84 47 26 1 5 1 0 0 0 0 69 99 75 100 85 96 92 98 55 100 24 100 100 100 99 81
5 5 14 10 93 99 81 100 6 4 5 5 19 9 96 100 100 100 69 47 100 100 100 11 4 56 6 0 0 0 2 7 100 100 100 38 100 100 79 79 64 10 99 95 100 100 77
65 46 42 11 16 9 87 90 100 86 2 5 11 44 5 13 15 22 100 82 98 100 66 5 5 34 11 0 0 1 8 97 100 100 100 100 97 97 88 100 46 100 100 95 100 100 88
5 21 83 100 70 100 100 100 100 100 80 7 78 94 9 53 21 77 12 5 3 0 0 1 0 4 0 0 0 12 78 100 100 100 100 100 82 100 100 100 79 94 100 86 100 100 96
5 5 34 100 79 96 100 100 99 12 28 98 100 94 10 44 73 62 8 5 3 0 0 0 0 0 0 0 0 67 94 100 100 100 100 96 79 94 100 100 100 99 100 100 98 100 100
5 9 5 16 96 87 100 98 100 93 100 100 100 85 59 92 93 77 80 5 0 0 0 5 4 0 5 0 1 6 100 100 100 100 100 66 100 34 99 100 92 90 100 100 100 100 100
93 5 6 5 5 72 100 98 100 100 98 100 91 100 99 100 85 92 87 4 0 2 4 6 1 1 5 28 1 36 100 100 100 100 100 100 100 92 100 100 99 100 100 100 100 71 100
5 4 4 5 4 32 62 54 81 14 100 100 88 99 100 79 12 88 46 5 0 4 1 13 0 43 4 94 6 33 100 100 100 100 100 100 80 98 100 100 100 100 100 100 100 97 100
2 5 5 5 5 8 100 87 100 97 99 100 100 98 25 29 73 79 81 67 75 15 25 3 0 2 64 14 100 98 100 100 100 100 100 100 100 89 100 100 100 100 100 100 100 98 100
5 5 5 8 5 5 5 37 100 100 100 90 96 98 42 80 95 100 100 100 100 100 20 3 5 3 5 1 98 100 100 100 100 100 100 100 100 100 100 100 100 100 100 100 100 73 100
5 5 5 3 5 32 5 39 99 100 100 91 98 98 97 91 84 91 100 100 100 100 100 90 86 98 6 3 77 100 100 100 100 100 100 100 94 100 100 100 100 100 100 100 100 93 96
5 5 5 5 90 25 15 99 27 100 100 100 100 72 100 100 62 94 99 85 100 100 94 100 93 10 0 0 10 93 100 100 100 100 100 100 100 100 100 67 100 100 100 100 100 100 100
65 5 5 5 100 95 100 100 100 100 100 100 99 31 20 99 100 100 50 83 100 100 100 100 100 93 6 0 8 100 100 100 99 100 100 100 100 100 100 100 100 100 100 100 68 99 100
5 5 5 5 5 5 46 100 100 100 96 100 96 17 99 100 100 100 100 57 99 100 95 87 100 95 100 93 56 100 100 100 100 100 100 100 100 100 100 100 100 100 100 100 100 100 84
86 94 83 31 99 36 5 54 88 100 12 68 95 48 100 52 100 100 100 97 99 100 92 100 100 100 95 94 45 100 100 100 100 100 100 100 100 100 100 100 100 100 100 100 100 100 100
100 86 70 5 13 6 48 5 70 99 97 96 55 66 100 99 100 100 100 87 96 91 93 87 100 83 100 44 26 100 100 100 100 100 100 100 100 99 100 100 100 100 100 100 100 100 100
23 53 87 78 13 29 38 5 14 100 100 100 100 100 100 86 66 100 99 100 74 81 92 100 100 100 7 100 100 100 100 100 100 100 100 100 100 100 98 98 98 100 100 100 100 100 100
78 12 81 98 98 100 93 100 100 100 100 100 100 100 99 100 56 95 100 100 100 100 100 74 69 74 54 100 99 100 100 100 100 100 100 100 100 100 100 100 70 5 5 54 90 100 100
100 100 99 100 100 100 100 100 100 100 100 100 100 100 90 81 61 98 40 98 95 97 99 93 100 82 100 98 99 100 100 100 100 100 100 100 92 91 89 100 91 10 73 37 65 90 72
100 100 100 100 100 100 100 100 100 100 100 100 100 100 100 100 63 82 81 100 100 54 100 100 100 100 94 84 60 98 100 53 100 100 100 100 34 83 62 34 78 35 7 6 5 80 85

GFSGBSN_prec_cloud_096.txt.gz
Cloud_Cover
100 100 98 62 34 5 6 18 21 35 46 94 100 100 100 100 100 90 100 100 100 100 100 100 100 100 100 100 100 46 100 5 14 14 8 5 5 0 0 0 5 2 0 1 38 65 93
100 100 100 100 51 98 86 61 82 99 47 30 61 5 9 30 100 100 83 7 42 100 100 100 100 100 100 100 100 76 52 39 100 100 100 42 4 0 0 0 7 5 0 0 100 100 99
100 100 100 100 100 98 100 100 57 64 57 25 5 11 5 76 50 88 85 100 100 99 100 100 100 100 100 100 100 100 100 35 89 100 100 54 5 0 0 0 3 2 4 0 91 100 8
100 100 96 100 100 100 100 100 100 100 100 100 94 47 47 24 10 5 5 10 88 100 100 100 100 100 100 100 100 100 100 100 100 100 100 100 100 9 0 0 0 0 0 0 99 38 44
100 100 100 99 100 100 100 100 100 100 78 27 100 100 100 100 100 95 18 5 18 30 79 100 100 100 100 100 100 100 100 100 100 100 100 100 100 68 4 0 1 2 0 1 96 100 28
76 97 94 100 100 86 100 100 98 100 100 75 100 100 100 100 100 100 100 100 36 9 4 66 100 100 100 100 100 100 100 100 100 100 100 93 6 1 1 5 1 5 4 57 4 100 13
100 100 28 67 100 100 98 95 100 100 100 100 82 100 100 100 80 100 100 99 100 57 60 94 26 32 100 100 100 100 100 100 100 100 95 82 5 5 5 5 78 100 20 5 51 100 100
100 100 100 100 46 90 55 5 43 67 10 5 6 7 6 96 53 88 91 100 97 17 4 44 10 5 100 54 94 100 95 100 100 100 100 21 1 5 5 68 95 95 58 10 60 100 100
100 100 100 100 87 16 91 86 16 15 6 4 5 5 5 5 5 4 5 73 32 4 30 100 59 68 66 100 99 86 8 70 30 8 4 0 0 0 29 67 99 8 72 92 99 100 99
100 91 96 100 100 84 6 14 30 5 5 1 0 5 30 5 3 5 26 97 4 4 4 11 44 41 40 90 92 100 55 5 5 3 5 0 2 62 7 41 100 47 100 100 100 100 17
87 7 5 5 5 8 52 5 6 32 94 17 5 5 40 13 1 2 63 67 5 30 2 2 12 93 100 100 88 27 20 19 76 5 5 0 0 63 100 23 99 60 100 100 100 91 99
5 5 5 5 5 47 79 6 9 43 99 91 100 50 31 6 59 4 6 4 9 4 0 0 4 2 92 100 100 88 100 62 5 2 0 0 62 75 10 100 100 100 100 65 96 100 66
5 5 7 5 0 4 6 5 26 71 92 26 94 100 88 83 19 100 86 16 3 0 0 0 2 12 6 70 100 72 7 22 32 5 0 2 42 100 100 63 100 100 100 100 100 98 34
5 5 6 5 2 4 4 5 12 58 27 5 47 98 100 80 5 100 100 95 42 0 0 0 4 82 32 73 6 83 60 5 5 5 5 34 13 80 100 82 100 100 100 100 99 52 67
6 5 7 5 5 5 0 4 5 5 8 67 26 59 57 19 43 78 99 97 0 0 0 18 14 39 2 7 0 8 2 3 31 9 23 96 54 100 80 90 100 100 95 98 100 96 97
41 5 5 5 5 5 5 5 5 5 100 100 95 71 43 100 98 80 95 26 3 0 6 0 5 10 48 68 33 0 44 34 12 25 98 100 100 100 100 100 100 100 100 99 9 35 75
5 5 5 5 5 5 5 5 5 10 5 25 53 100 87 39 36 100 52 5 5 0 64 15 6 28 5 100 92 100 6 100 46 39 86 100 100 100 100 100 100 100 100 43 99 48 12
5 5 5 5 5 5 4 5 4 6 15 65 87 98 100 91 100 69 96 100 77 97 19 4 1 80 86 100 38 100 90 100 44 42 100 52 100 100 100 100 100 100 92 100 100 100 99
5 5 5 3 5 4 3 5 8 27 21 85 92 64 93 100 100 93 99 100 69 100 94 95 66 8 17 100 93 100 100 5 7 95 98 100 100 100 100 100 100 100 100 100 100 100 87
5 5 27 5 96 5 4 5 55 8 97 68 100 72 50 97 70 95 100 90 96 70 95 100 74 99 76 42 97 43 100 83 4 56 100 100 100 100 100 100 98 82 100 90 100 100 100
10 5 5 5 7 16 4 5 15 18 100 99 99 46 100 100 81 66 99 100 100 100 30 70 28 38 100 100 99 100 100 8 6 5 100 100 100 100 100 97 100 100 100 100 100 100 100
65 37 5 5 5 5 57 11 7 41 87 100 96 75 99 93 98 100 49 27 99 97 100 50 70 92 28 81 61 56 62 6 5 93 100 100 100 100 100 100 100 100 100 100 100 100 100
100 27 5 5 5 5 5 5 11 76 90 100 88 23 74 33 93 86 85 75 81 100 98 24 100 85 90 92 100 31 71 71 8 42 100 100 100 100 100 100 52 100 100 100 100 100 100
6 5 5 5 5 32 50 5 5 29 50 88 53 80 99 35 100 98 99 100 100 77 98 99 100 74 85 18 37 2 5 38 12 98 100 100 100 100 100 100 75 100 100 100 100 100 89
66 41 5 9 84 13 5 30 3 5 51 37 70 79 99 81 100 100 100 100 100 97 61 22 23 45 72 43 73 5 4 14 21 100 100 100 100 100 100 100 100 100 100 90 100 100 100
74 43 51 5 5 7 46 21 17 5 53 13 100 100 98 99 86 91 100 100 93 93 82 78 16 13 27 100 97 80 67 49 70 100 100 100 100 100 100 100 100 100 100 96 100 81 100
57 81 14 5 5 5 5 5 5 7 80 100 100 100 100 99 99 88 99 83 45 100 100 94 95 86 37 99 100 98 78 99 100 100 100 100 100 100 100 100 100 100 100 100 100 52 98
61 41 63 7 5 5 35 32 100 100 100 100 100 100 94 63 94 59 73 90 55 92 99 100 16 34 97 83 85 100 10 100 100 100 100 100 100 100 100 100 100 100 68 97 69 65 87
6 85 94 54 96 100 100 100 100 100 100 100 100 100 100 100 29 82 8 5 34 92 100 30 55 100 82 20 65 81 100 100 100 100 100 100 100 100 100 100 100 100 98 26 20 100 97

GFSGBSN_prec_cloud_099.txt.gz
Cloud_Cover
100 29 5 9 55 56 94 41 100 71 100 100 55 9 5 27 96 100 100 100 100 100 100 100 100 100 97 58 100 54 100 100 100 100 100 100 45 3 0 1 3 0 0 0 3 3 1
100 100 86 12 66 61 86 88 100 100 99 77 78 90 100 31 55 94 98 100 100 100 99 100 100 100 100 100 100 100 100 100 100 100 100 100 89 18 3 13 2 7 3 0 1 5 0
100 100 100 100 5 6 52 86 25 99 100 100 100 100 100 100 100 100 100 100 100 97 98 100 100 99 100 100 100 100 100 100 100 100 100 100 100 96 5 13 83 99 1 0 54 5 5
100 100 100 57 100 59 100 100 72 99 98 100 95 95 33 39 17 86 94 85 37 5 33 5 57 36 99 92 97 100 80 100 100 100 100 100 100 69 99 99 99 8 1 4 46 1 0
100 100 100 100 100 100 100 100 5 78 76 100 100 100 100 82 16 70 50 21 92 5 5 41 3 0 62 17 7 100 97 100 100 100 100 100 100 100 100 98 53 94 91 2 0 0 5
100 100 100 100 100 100 33 86 92 67 25 93 100 95 100 100 100 96 100 42 92 18 55 50 5 12 11 39 5 5 49 100 100 100 100 100 100 99 100 100 100 98 1 0 0 5 99
100 100 100 100 100 100 100 100 100 100 16 15 5 5 46 93 34 98 100 21 90 8 94 6 5 5 4 5 5 5 16 5 28 100 100 100 86 97 100 100 100 6 5 0 0 5 90
100 100 100 100 100 100 100 100 100 24 20 74 38 41 93 85 92 59 60 36 97 29 48 82 25 74 9 2 1 62 1 5 17 64 96 100 100 100 100 100 100 78 4 8 0 5 100
100 100 100 100 100 100 100 100 100 100 88 100 89 22 77 12 13 11 23 30 95 94 2 69 21 32 11 0 5 49 0 5 6 86 90 76 92 100 100 100 100 72 5 4 4 5 17
100 100 100 100 100 100 100 100 100 71 4 4 5 5 5 3 2 1 22 100 100 99 70 1 2 3 0 5 9 44 10 2 5 9 100 30 45 84 91 50 11 0 0 4 24 96 9
100 100 100 100 100 100 100 100 100 70 4 0 2 3 4 5 5 0 39 100 100 52 46 0 0 0 0 0 0 5 38 5 7 5 18 42 91 12 5 6 3 0 6 8 69 6 5
100 100 100 100 100 100 87 100 16 5 5 5 5 5 4 2 5 9 75 100 7 90 41 0 0 0 0 0 0 0 0 2 5 47 36 21 63 44 64 30 1 20 72 90 83 46 23
100 69 10 46 5 5 4 14 32 5 3 2 3 2 0 5 0 77 100 73 80 73 0 0 0 1 0 0 0 0 0 0 0 2 100 100 100 100 6 4 2 5 43 89 79 58 3
98 100 100 12 5 31 5 5 5 14 8 5 5 4 0 5 48 89 98 100 96 0 0 0 43 99 100 20 40 1 0 0 0 0 5 5 23 100 99 8 5 5 95 69 15 3 51
100 19 10 5 5 5 5 5 5 7 5 5 5 6 4 33 100 18 100 100 0 0 0 69 1 96 44 65 98 96 10 5 19 2 0 0 2 97 16 15 19 10 31 25 100 100 67
94 65 34 5 5 5 5 5 5 5 5 5 43 10 3 69 100 100 100 16 2 0 11 26 3 2 29 100 83 4 30 2 6 40 72 3 0 2 0 96 36 92 86 90 99 100 79
98 5 5 5 5 5 5 5 5 5 5 5 16 64 32 6 36 100 86 11 2 0 82 99 19 97 100 80 9 70 99 5 100 37 100 45 0 67 12 12 69 100 100 73 77 100 100
43 5 5 5 5 5 5 3 1 5 5 21 53 96 5 80 92 100 67 5 0 0 5 7 76 5 100 36 61 81 100 100 95 100 100 78 3 91 96 63 100 100 100 100 100 100 100
42 5 5 4 2 5 5 2 4 5 58 78 98 33 26 100 100 56 5 5 3 0 4 8 98 2 50 5 7 100 99 100 96 100 100 100 4 39 100 100 100 100 100 100 97 100 100
44 59 5 66 5 5 5 5 5 17 85 67 100 96 18 80 95 92 100 100 40 0 5 6 82 75 0 36 96 58 100 100 100 93 100 99 5 14 100 100 100 100 100 94 99 100 100
46 5 5 20 5 5 5 4 5 16 69 37 100 53 73 81 99 100 85 43 100 90 10 12 6 4 0 3 40 5 97 70 97 29 100 98 89 99 100 100 100 100 80 85 100 100 100
7 11 100 14 5 5 5 5 5 57 5 85 100 71 14 57 100 99 85 100 88 100 100 100 4 0 0 2 4 4 5 32 5 75 58 5 0 100 100 100 100 100 100 100 100 100 100
14 55 5 5 64 12 5 5 5 42 47 96 72 64 84 13 5 46 75 100 72 5 66 62 99 18 13 25 3 0 0 0 0 4 100 5 3 99 100 100 100 94 100 100 100 100 100
6 77 6 5 5 5 10 74 1 6 35 17 7 29 95 39 16 5 5 93 100 100 67 25 28 40 27 49 48 17 1 4 0 4 42 5 4 71 100 100 100 100 100 98 100 100 100
22 33 42 78 28 5 38 100 84 2 5 5 15 91 96 49 5 80 100 100 99 81 85 7 9 18 96 57 59 100 100 98 0 0 45 5 33 100 100 100 100 100 100 100 100 100 100
9 5 62 42 100 8 5 100 100 99 10 7 5 86 100 95 11 44 39 74 78 100 48 17 78 93 76 100 100 25 38 4 1 0 0 0 88 100 100 100 100 98 42 100 100 100 100
5 7 42 92 100 100 5 53 100 100 88 36 5 48 100 100 15 98 30 88 93 98 70 98 6 6 100 100 100 100 75 100 83 52 4 3 100 100 100 100 100 99 88 100 100 83 100
5 8 100 97 41 69 5 5 25 89 49 82 53 5 58 96 56 74 20 15 72 97 100 62 84 62 94 100 100 100 99 99 99 99 100 56 100 100 100 100 100 100 100 100 98 64 85
5 51 88 98 95 99 1 5 5 5 31 92 100 86 74 89 20 41 5 5 5 33 90 79 99 100 100 100 100 100 100 100 100 100 100 100 100 100 100 100 100 100 100 100 97 74 63

GFSGBSN_prec_cloud_102.txt.gz
Cloud_Cover
74 100 5 67 36 88 100 100 80 56 5 15 55 26 5 5 96 100 87 100 100 100 98 100 100 100 100 100 100 100 100 97 95 66 97 100 100 100 100 100 17 100 74 0 0 0 13
100 100 100 100 92 88 66 98 100 89 76 23 34 24 42 94 91 100 81 94 100 100 96 100 100 100 100 100 42 97 100 100 100 90 77 100 100 100 100 100 100 100 5 11 2 1 100
100 100 100 100 100 100 100 100 100 100 100 100 47 8 59 99 84 13 43 100 100 81 65 44 71 92 100 100 96 20 71 100 100 100 100 100 100 100 100 100 100 100 14 6 86 95 64
100 100 100 100 100 100 100 100 100 100 100 100 99 99 72 11 41 5 73 100 100 51 35 7 5 81 90 79 99 100 88 100 96 87 99 100 100 100 100 100 100 100 100 100 99 98 84
100 100 100 100 100 100 100 100 100 100 100 100 100 100 100 100 100 80 100 100 100 100 100 96 60 45 13 68 5 5 6 34 52 99 100 98 100 100 100 100 100 100 100 99 85 93 98
100 100 100 100 100 100 100 100 100 100 100 100 100 100 100 100 100 100 100 100 74 100 100 80 100 33 37 5 5 6 4 0 1 0 0 4 38 95 52 100 100 100 97 77 28 100 76
100 100 100 100 100 100 100 100 100 100 100 100 100 100 100 100 100 70 5 43 100 56 99 100 100 23 85 34 79 13 55 4 0 4 3 5 0 4 98 100 100 100 91 39 100 100 95
100 100 100 100 100 100 100 100 100 100 100 100 100 100 100 100 100 66 21 13 85 40 20 5 48 30 62 84 15 81 6 1 4 0 1 0 0 41 86 51 96 9 5 17 100 100 68
100 100 100 100 100 100 100 100 100 100 100 94 100 100 100 100 100 100 100 94 42 94 65 43 48 61 89 46 4 55 30 7 10 5 1 0 1 4 0 5 6 94 98 99 96 100 5
100 100 100 100 100 100 100 100 94 100 100 20 100 90 100 76 98 100 100 43 88 80 24 0 5 14 54 100 81 86 100 9 1 1 5 0 0 3 3 4 25 7 96 89 99 100 100
100 100 100 100 100 100 100 100 100 100 100 100 100 100 98 94 16 68 43 5 78 96 63 0 0 2 3 76 53 34 100 5 6 69 6 0 3 0 0 1 98 23 100 90 24 5 0
100 100 96 99 83 93 100 100 100 100 100 94 35 79 24 5 2 0 0 3 42 77 56 0 0 0 0 0 2 4 5 11 0 3 2 5 5 4 0 1 5 34 75 8 12 5 5
100 100 100 100 100 100 100 34 24 10 5 5 0 2 14 64 14 0 5 30 87 94 0 0 0 100 79 17 0 0 0 0 0 0 0 4 0 0 0 0 4 10 49 83 82 81 15
100 100 100 100 100 99 20 6 5 1 1 5 5 5 5 5 0 4 95 100 100 2 0 0 0 6 0 0 2 0 0 0 0 0 0 0 0 0 0 0 11 46 35 17 27 5 5
100 100 100 100 59 11 5 42 5 5 0 0 4 22 9 0 1 5 90 100 100 100 94 100 1 73 28 20 83 96 14 16 5 0 0 0 0 0 0 0 0 5 28 89 100 7 1
100 100 100 89 5 5 5 3 2 1 0 5 100 64 6 0 1 58 100 91 100 100 6 100 86 100 100 100 100 100 97 93 100 10 18 5 1 0 0 0 0 0 19 63 17 16 6
100 85 97 5 5 5 5 5 5 4 0 4 17 72 2 5 13 92 98 27 4 3 0 3 100 100 100 100 100 100 100 100 100 100 43 83 21 0 0 0 0 0 2 100 97 61 2
26 75 99 4 98 5 3 5 5 0 5 5 96 95 5 78 100 88 100 100 73 0 0 3 100 100 100 100 100 100 100 100 38 100 100 61 77 8 21 87 10 4 66 100 24 12 44
16 46 96 20 5 5 5 5 3 1 37 12 100 18 1 26 58 100 94 72 48 6 5 8 100 99 82 94 82 99 86 14 65 39 90 100 73 81 34 100 83 100 100 100 76 94 12
55 20 98 7 5 82 5 5 5 30 97 54 83 91 16 99 100 100 100 92 75 100 3 94 64 6 100 100 100 88 89 89 100 52 74 100 100 100 66 99 93 100 100 91 52 82 84
5 5 26 5 5 45 5 5 5 40 77 67 98 94 17 35 97 100 59 100 100 100 76 79 98 70 5 14 95 98 39 13 100 100 100 100 100 84 100 100 100 100 100 100 100 100 60
100 98 5 88 100 39 5 5 5 2 79 82 100 98 96 48 20 100 77 100 100 100 100 98 50 2 0 0 1 5 1 0 100 100 100 100 100 100 99 86 100 100 100 100 100 100 100
81 82 5 91 100 10 5 5 5 5 67 72 90 96 98 51 5 61 83 11 89 100 96 100 100 68 38 4 0 5 2 0 57 100 100 100 100 100 100 93 95 100 100 100 100 100 100
75 72 5 98 24 5 5 4 6 20 13 33 5 89 100 99 56 10 75 3 41 98 88 20 5 27 26 9 30 1 0 0 3 94 92 100 100 100 100 67 80 100 100 100 100 100 87
57 40 79 56 28 5 4 4 30 100 85 22 5 62 100 84 5 5 2 99 5 7 39 72 31 5 5 14 25 2 3 0 0 3 98 15 81 98 100 51 98 100 100 100 100 100 100
100 94 5 5 5 46 23 3 94 100 100 14 5 50 100 100 16 5 5 5 16 6 82 23 89 32 94 90 20 22 44 5 1 0 2 16 5 4 5 5 78 100 50 98 100 100 100
17 100 71 5 5 58 58 78 18 100 97 22 5 5 90 100 8 5 5 5 5 56 57 26 38 13 98 100 99 34 50 73 87 86 5 0 2 5 9 28 23 100 96 100 100 100 100
69 73 85 5 78 7 5 5 5 52 98 82 8 38 97 57 38 5 5 5 5 44 80 13 73 95 100 100 100 94 98 100 100 100 100 37 8 17 47 5 55 97 100 100 90 92 100
22 19 69 5 89 64 80 57 5 5 78 100 100 95 66 84 56 42 23 5 5 5 5 30 97 100 100 100 82 95 100 100 100 100 100 100 26 4 62 93 100 72 100 100 100 32 53

GFSGBSN_prec_cloud_108.txt.gz
Cloud_Cover
100 74 98 100 100 81 5 25 5 14 6 5 5 5 5 18 94 98 99 100 99 86 100 19 99 100 100 100 100 100 100 100 100 100 100 100 100 100 98 19 13 5 39 5 5 1 5
90 48 66 92 100 100 89 33 8 68 53 5 5 5 5 29 100 100 99 100 49 15 96 87 82 100 96 100 100 100 100 100 100 100 100 100 100 100 59 76 5 13 5 5 6 28 64
100 99 100 100 59 72 98 82 100 92 70 5 5 5 37 100 100 100 100 100 91 100 100 50 79 100 100 100 97 68 19 100 100 100 100 100 100 100 100 100 57 57 58 64 99 71 100
100 100 98 100 9 5 42 65 6 14 10 5 5 5 5 97 100 100 100 100 100 100 100 100 47 20 96 100 100 100 100 99 50 88 100 100 100 100 100 100 100 100 70 100 97 100 100
100 100 95 97 36 34 65 71 58 18 5 5 5 18 67 100 94 91 99 100 100 100 100 100 93 90 48 100 100 100 100 100 100 100 75 100 64 99 100 76 83 57 100 100 100 100 100
78 100 92 89 70 5 10 76 6 5 5 5 22 99 99 99 67 50 91 100 100 100 100 100 100 100 99 100 100 100 100 100 92 84 91 100 100 68 40 14 29 100 95 100 100 100 12
100 98 34 91 68 42 5 94 16 5 5 5 85 87 70 50 83 8 87 80 100 100 100 100 59 100 100 100 100 100 100 100 100 100 100 100 100 2 5 99 99 40 5 5 63 36 69
100 100 96 64 100 68 100 72 30 5 58 66 79 100 100 100 100 87 100 100 91 100 100 100 100 100 100 100 20 93 100 94 100 100 100 88 7 13 66 12 5 5 5 17 7 6 14
100 100 100 100 100 73 88 36 43 25 46 11 11 74 73 100 65 100 100 100 100 65 98 100 100 100 100 75 96 89 100 65 30 100 100 100 5 8 6 98 94 54 28 15 21 5 12
100 100 100 100 100 84 43 82 15 10 5 10 48 99 86 72 5 14 57 98 31 15 52 7 54 78 100 100 34 5 98 100 86 24 100 86 58 12 100 46 99 100 100 100 100 6 5
100 100 100 100 100 100 73 90 99 100 73 98 98 5 5 6 91 9 3 0 0 5 0 0 0 0 0 43 62 99 100 92 0 73 100 2 2 49 80 95 100 98 100 100 100 65 5
100 100 100 100 100 94 100 100 74 90 69 6 6 6 23 15 34 3 0 0 0 4 13 0 0 0 0 0 0 0 3 40 8 5 30 5 5 5 5 5 43 66 42 89 98 19 0
100 100 100 100 100 100 100 100 100 65 5 12 20 6 5 5 10 2 0 0 1 2 0 0 1 0 0 3 0 2 4 2 8 2 5 61 73 100 100 99 93 100 91 32 100 98 12
100 100 100 100 100 100 100 100 85 8 7 98 75 5 5 5 0 5 0 5 40 0 0 0 18 0 55 9 5 4 24 7 100 100 77 19 1 39 3 93 99 100 100 100 100 100 97
100 100 100 100 100 100 100 100 100 23 11 100 96 5 5 5 0 0 4 36 3 0 0 3 7 97 63 100 100 100 91 100 100 100 100 98 8 0 4 5 33 100 92 100 100 100 98
100 100 100 100 100 100 100 100 100 100 87 42 16 5 5 5 1 3 10 12 2 4 16 55 94 70 100 96 100 100 100 100 100 100 88 66 5 3 0 14 0 1 76 100 100 100 88
100 100 100 100 100 100 100 100 96 100 76 94 10 5 34 5 5 13 47 5 20 5 22 31 22 96 100 82 100 100 100 100 100 100 100 98 5 1 3 94 39 0 0 1 2 4 14
100 100 100 100 100 100 100 100 100 100 86 92 10 5 100 7 13 94 95 83 40 5 7 29 58 99 99 100 100 100 100 100 100 100 100 100 98 3 3 6 1 5 4 0 5 5 3
100 100 100 100 100 100 100 100 100 100 100 54 6 10 13 83 63 46 7 6 21 33 5 96 44 100 100 100 100 100 100 100 100 100 100 100 87 37 77 2 95 90 20 0 0 0 0
100 100 100 100 100 100 100 100 100 100 72 21 26 37 35 100 98 100 73 5 4 73 42 77 17 100 100 100 100 100 100 100 100 100 100 100 100 100 74 75 82 65 76 80 0 1 0
100 100 100 100 100 100 100 100 100 32 19 35 49 36 56 84 81 92 50 5 4 4 69 22 56 100 100 100 100 100 100 100 100 100 100 100 100 100 100 88 98 100 100 84 56 0 0
100 100 100 100 100 100 99 96 60 17 77 25 98 49 100 99 6 5 7 5 5 5 5 6 35 82 100 100 100 100 100 100 100 100 100 100 100 100 100 99 54 71 100 100 100 80 5
100 100 100 100 100 100 75 5 99 14 13 98 38 95 96 8 5 17 4 5 3 13 74 5 63 69 98 100 100 100 100 100 100 100 100 100 100 100 100 100 90 18 30 100 100 100 72
100 100 100 100 100 96 19 37 100 55 10 5 5 80 97 49 21 5 4 5 4 0 13 76 67 43 29 35 100 100 100 73 96 100 100 100 100 100 100 100 100 89 98 80 100 100 100
100 69 30 19 98 60 30 31 100 14 64 6 5 26 97 85 5 5 0 3 1 0 5 5 10 5 5 7 11 100 97 95 95 100 100 100 100 100 100 100 100 100 100 98 99 100 100
82 100 41 5 9 52 5 63 100 87 87 25 74 97 95 95 21 9 6 8 7 5 5 0 42 4 5 15 32 23 99 100 84 100 100 100 100 100 100 100 100 100 100 100 100 100 100
99 100 47 4 5 94 13 95 100 100 78 16 88 100 100 100 5 47 74 5 5 5 5 5 5 5 26 41 87 96 95 86 100 100 98 100 99 100 100 100 100 87 100 100 100 100 100
100 100 31 6 97 47 38 12 73 99 100 42 59 100 100 85 5 5 5 5 5 35 5 3 5 54 64 98 86 100 90 80 71 34 100 79 50 55 100 100 87 100 77 100 100 100 100
100 100 67 10 58 100 40 5 21 100 100 82 26 100 100 100 4 5 4 5 1 5 5 13 5 7 17 29 94 100 100 100 99 95 69 84 100 99 100 99 100 27 92 100 100 100 100

GFSGBSN_prec_cloud_111.txt.gz
Cloud_Cover
30 78 46 19 9 95 73 100 98 96 87 47 45 89 79 40 22 25 6 5 0 0 1 2 8 100 67 89 95 89 100 100 100 100 100 100 100 100 100 100 100 100 100 100 100 100 100
20 99 59 23 9 80 80 10 62 85 84 86 22 5 5 2 20 58 27 0 1 5 5 5 39 98 88 100 100 100 54 100 100 100 100 100 100 100 100 100 72 93 98 100 73 21 79
88 99 97 99 53 82 34 64 26 48 8 54 5 5 2 0 0 0 0 0 0 5 5 39 34 99 100 100 100 100 98 100 100 100 100 100 100 52 50 100 100 99 93 87 28 94 81
69 100 100 100 22 72 100 100 100 98 46 12 47 5 0 0 0 0 0 0 0 0 2 82 47 65 100 100 100 100 100 100 100 100 100 100 100 98 95 100 98 94 27 94 100 100 100
100 100 100 100 100 100 97 100 100 100 67 13 66 3 0 0 0 0 0 5 5 3 5 73 99 100 91 100 100 100 100 100 100 100 100 100 100 100 100 82 97 34 98 100 100 100 100
100 100 100 100 100 100 98 70 99 33 7 8 0 0 0 0 0 0 5 5 5 5 14 5 81 100 97 94 100 100 100 100 100 100 100 100 100 35 24 44 16 89 100 68 100 100 100
100 100 100 100 100 86 39 91 54 92 18 77 27 5 5 0 0 2 5 5 100 92 100 100 62 66 100 99 22 100 100 100 100 100 100 100 100 9 5 99 93 19 5 5 5 12 5
100 100 100 100 100 100 100 100 100 95 100 98 99 5 3 0 5 5 1 1 58 58 79 100 100 27 14 100 100 98 100 100 100 100 100 94 72 99 100 99 77 8 5 12 65 94 33
100 100 100 100 100 100 100 100 100 100 100 100 96 5 5 5 5 2 1 5 2 4 91 43 82 100 100 66 16 94 100 100 100 100 100 100 100 100 100 100 100 94 20 20 60 100 87
100 100 100 100 100 100 100 100 100 100 100 100 80 5 5 5 4 0 0 2 5 5 0 0 0 4 12 100 100 60 14 60 100 100 100 100 94 98 100 84 100 59 88 98 100 97 10
100 100 100 100 100 100 100 100 100 100 100 58 5 6 30 5 4 0 0 0 2 5 0 0 0 0 0 0 0 4 97 84 0 60 100 7 76 100 49 98 100 100 100 100 100 86 5
100 100 100 100 100 100 100 100 100 100 100 23 35 14 5 2 0 0 0 2 0 0 0 0 0 0 0 0 0 4 2 0 2 4 0 1 6 11 100 89 18 54 100 92 7 5 0
100 100 100 100 100 100 100 100 100 100 100 95 6 5 7 3 5 3 0 5 5 0 0 0 0 0 0 0 0 3 5 5 10 3 0 0 0 1 70 77 5 36 94 100 91 5 5
100 100 100 100 100 100 100 100 100 100 100 100 18 5 5 5 66 80 5 5 0 0 0 0 0 0 2 0 0 0 43 66 6 46 28 17 0 5 6 67 28 87 99 100 99 34 6
100 100 100 100 100 100 100 100 100 100 100 100 95 58 5 6 100 98 5 3 0 0 1 6 3 2 0 76 16 90 100 100 100 100 100 73 6 11 1 57 60 51 29 52 100 100 14
100 100 100 100 100 100 100 100 100 98 100 100 100 59 5 25 100 42 5 2 0 5 5 12 94 6 6 4 84 100 100 100 100 100 100 93 64 84 5 0 22 5 63 100 59 55 15
100 100 100 100 100 100 100 100 93 100 100 100 100 49 33 17 5 6 5 5 4 3 32 21 47 88 59 88 100 100 100 100 100 100 100 100 99 7 5 1 0 0 2 28 81 8 15
100 100 100 100 100 100 100 100 100 100 100 100 100 8 100 94 10 67 52 5 5 5 6 81 42 9 99 88 100 100 100 100 100 100 100 100 98 100 0 88 87 90 1 1 7 9 5
100 100 100 100 100 100 100 100 97 98 100 100 99 24 66 58 7 40 6 5 5 5 5 86 84 99 10 60 87 100 100 100 100 100 100 100 100 100 80 36 100 100 73 4 0 0 0
100 100 100 100 100 100 100 100 100 100 100 100 100 100 100 100 91 100 74 21 4 4 5 35 97 100 29 100 24 100 100 100 100 100 100 100 100 100 100 13 75 100 100 68 2 0 0
100 100 100 100 91 100 100 100 100 100 86 100 100 100 99 84 92 60 7 5 5 5 0 5 8 88 91 84 100 100 100 100 100 100 100 100 100 100 100 93 68 97 100 100 100 47 0
99 100 100 100 97 100 100 100 100 100 100 100 100 100 97 77 15 5 5 3 2 3 5 5 20 5 100 73 100 100 100 100 100 100 100 100 100 100 100 100 99 99 100 100 100 100 99
100 100 100 100 100 100 100 100 100 100 100 100 99 32 5 5 5 15 3 2 5 3 0 5 3 17 23 70 100 100 100 100 100 100 100 100 100 100 100 99 100 100 100 100 100 100 61
100 100 100 100 100 100 100 100 100 100 100 50 7 5 38 18 5 5 4 5 3 0 6 2 0 42 4 5 100 100 48 100 100 100 100 100 100 100 100 100 100 100 97 100 73 100 93
100 100 100 100 100 100 100 100 100 95 100 15 5 11 32 65 13 5 3 1 1 0 4 0 0 5 1 7 53 100 100 10 100 100 100 100 100 100 100 100 100 100 100 100 100 100 100
100 100 100 100 100 100 95 16 9 97 100 58 5 6 66 73 15 4 5 5 18 5 5 3 0 1 5 17 87 50 100 97 11 100 100 100 100 100 100 100 100 100 100 100 100 100 100
100 100 96 100 80 5 4 6 17 91 100 75 6 83 100 97 5 5 18 5 5 5 5 5 2 3 5 40 93 99 90 53 99 43 82 100 100 100 100 100 76 100 100 100 100 100 100
100 99 100 100 89 18 2 41 49 92 100 81 58 96 86 77 5 5 5 3 4 5 89 5 2 64 8 60 95 97 100 88 83 84 89 100 100 100 100 100 93 65 100 100 100 100 100
100 100 100 100 100 21 10 56 74 100 82 98 23 54 96 100 3 5 3 2 0 5 6 5 3 6 6 66 38 99 99 100 100 100 100 100 100 100 100 100 100 66 100 100 100 100 100

GFSGBSN_prec_cloud_114.txt.gz
Cloud_Cover
59 74 39 90 66 78 84 85 28 28 99 27 93 50 100 67 8 5 4 5 5 2 0 1 3 3 0 4 14 5 5 7 89 22 79 86 96 93 100 100 100 100 100 100 100 100 100
73 95 84 85 100 100 98 100 100 82 66 17 95 62 64 41 31 5 5 5 5 0 0 0 3 0 0 0 3 5 5 5 52 100 100 98 84 45 74 95 100 100 76 79 100 100 100
100 100 100 100 100 100 100 100 100 100 100 86 82 67 100 78 47 5 19 5 3 0 0 0 0 0 0 0 6 39 97 66 5 98 100 100 95 88 54 100 100 100 100 100 100 66 70
100 100 100 100 100 100 100 100 100 100 100 100 100 100 97 97 30 16 5 4 0 0 0 0 0 0 0 0 0 70 100 100 100 100 100 100 100 100 100 100 100 100 100 100 100 100 100
100 100 100 100 100 100 100 100 100 100 100 100 100 42 36 31 8 5 5 3 0 0 0 0 0 2 1 0 1 100 100 100 80 100 99 100 100 100 100 100 87 100 100 100 100 100 100
100 100 100 100 100 100 100 100 100 100 100 100 100 90 5 5 5 5 4 5 0 0 0 0 0 0 58 86 41 27 100 100 100 100 100 100 100 100 100 100 84 100 100 100 100 100 100
100 100 100 100 100 100 100 100 100 100 100 100 100 67 5 5 5 5 5 0 1 2 0 0 0 0 4 72 100 86 62 100 100 100 100 100 100 12 100 100 100 100 100 100 100 100 100
100 100 100 100 100 100 100 100 100 100 100 100 100 21 5 5 6 75 5 4 3 0 0 0 0 5 8 5 36 79 100 32 100 100 100 100 98 100 100 100 100 100 100 100 100 100 65
100 100 100 100 100 100 100 100 100 100 100 75 6 5 47 83 71 5 5 6 5 5 2 0 0 0 15 56 41 85 35 16 6 98 100 100 100 100 75 64 96 100 100 96 100 100 32
100 100 100 100 100 100 100 100 100 100 32 22 96 100 84 6 19 29 5 5 0 5 0 0 0 0 0 0 0 0 20 23 4 3 69 64 99 100 100 100 90 60 100 100 100 100 6
100 100 100 100 100 100 100 100 100 99 100 100 100 100 100 11 5 5 4 0 1 6 0 0 0 0 0 0 0 0 0 0 0 0 2 0 5 40 100 100 100 100 100 100 100 100 100
100 100 100 100 100 100 100 100 100 100 100 100 100 100 5 5 5 5 4 5 4 0 4 4 2 0 0 0 0 0 0 4 14 17 0 1 1 0 2 100 100 100 100 100 86 18 5
100 100 100 100 100 100 100 100 100 100 100 100 100 97 5 5 5 4 5 5 0 2 1 0 1 0 0 0 0 0 3 26 92 93 90 66 3 0 0 0 48 94 100 100 100 79 28
100 100 100 100 100 100 100 100 100 100 100 100 42 5 5 12 5 5 5 5 0 0 0 0 0 0 0 0 0 0 5 53 100 100 98 100 30 98 0 0 0 5 24 100 100 61 90
100 100 100 100 100 100 100 100 100 100 94 84 68 24 46 5 5 5 5 5 0 0 0 5 0 0 0 5 5 54 5 76 100 100 100 100 86 30 90 0 0 0 5 7 98 98 83
100 100 100 100 100 100 100 100 100 100 100 78 65 18 23 29 5 5 5 5 1 1 5 5 5 5 5 5 8 80 28 86 100 100 100 100 76 47 96 45 3 0 4 36 53 61 5
100 100 100 100 100 100 100 100 100 100 100 100 87 14 42 8 5 5 10 14 1 5 5 24 54 83 89 93 98 100 82 96 100 100 100 100 100 100 84 100 61 0 12 34 5 10 69
100 100 100 100 100 100 100 100 100 100 100 100 80 92 48 76 11 31 66 6 2 24 5 86 86 99 100 100 75 100 100 82 100 100 100 100 100 100 100 98 7 13 21 36 8 5 5
100 100 100 100 100 100 100 100 100 100 100 100 96 58 99 62 69 100 11 5 64 100 5 96 94 96 80 99 96 95 100 92 100 100 100 100 100 100 95 96 100 71 84 100 100 100 94
100 100 100 100 100 100 100 100 100 100 100 100 71 75 74 85 100 95 42 39 100 29 2 51 64 68 76 7 81 86 100 98 100 100 100 100 100 100 100 100 100 100 100 33 92 100 13
100 100 100 100 100 99 97 99 100 100 100 98 98 41 87 98 100 80 92 100 56 5 2 1 29 88 77 76 5 18 100 100 89 100 100 100 100 100 100 100 100 100 100 100 88 49 100
100 100 100 100 100 100 100 100 100 100 100 100 86 100 100 100 98 100 100 45 5 22 4 4 28 93 5 33 99 96 100 98 100 100 100 100 100 100 100 99 100 100 100 100 100 100 98
100 100 100 100 100 100 100 100 100 100 100 100 92 84 100 100 100 100 66 4 6 6 3 10 85 5 5 5 5 4 100 96 100 100 100 100 100 100 100 100 100 100 100 100 100 100 100
100 100 100 100 100 100 100 100 98 100 100 100 100 100 100 100 100 82 8 5 27 90 20 5 5 5 5 4 0 3 99 98 84 100 100 100 100 100 100 100 100 100 100 100 100 100 100
100 100 100 100 100 100 100 100 100 100 100 100 100 100 100 100 93 10 43 77 7 5 5 5 1 5 5 4 29 5 100 100 92 100 100 100 100 100 100 100 100 100 100 100 100 81 100
100 100 100 100 100 100 100 100 100 100 100 100 100 100 100 94 14 5 5 5 11 49 52 5 5 1 21 31 88 70 100 99 100 98 100 100 100 100 100 100 100 100 100 100 100 100 100
100 100 100 100 100 100 100 100 100 100 100 100 100 75 90 97 61 7 88 100 98 100 74 17 46 2 20 95 98 100 100 100 99 100 100 100 100 100 100 94 100 100 100 98 100 100 100
100 100 100 100 100 100 100 100 100 100 100 100 69 7 34 70 94 12 4 6 58 18 86 96 27 80 98 97 100 100 100 98 94 53 95 100 100 100 94 99 100 100 100 100 100 100 100
100 100 100 100 100 100 80 89 46 47 100 98 100 10 94 57 95 6 5 5 5 10 96 99 95 60 98 92 98 100 100 99 100 100 54 100 100 100 91 100 100 100 100 100 100 100 100

GFSGBSN_prec_cloud_117.txt.gz
Cloud_Cover
100 100 100 100 100 100 100 100 100 100 88 86 6 8 22 100 100 100 100 100 100 59 5 5 8 5 4 5 0 0 0 0 0 4 2 5 25 6 3 5 75 100 100 95 100 100 100
100 100 100 100 100 100 100 100 100 100 100 100 100 100 100 97 100 100 100 100 100 100 100 25 5 5 5 4 0 0 0 0 0 0 0 4 65 100 5 6 36 32 100 100 98 99 100
100 100 100 100 100 100 100 100 100 100 100 100 100 100 100 100 100 100 94 100 100 55 5 5 5 2 0 0 0 0 0 0 0 0 0 4 34 67 100 95 99 58 55 100 100 100 100
100 100 100 100 100 100 100 100 100 100 100 100 100 100 100 100 100 100 100 100 100 53 5 5 5 4 0 0 0 0 0 0 0 0 0 7 99 100 68 100 81 98 92 5 100 100 100
100 100 100 100 100 100 100 100 100 100 100 100 100 100 100 100 100 100 100 100 100 100 33 92 4 0 0 0 0 0 0 0 0 0 2 90 82 100 100 98 79 23 46 80 90 100 100
100 100 100 100 100 100 100 100 100 100 100 100 100 100 100 100 100 100 100 100 100 100 5 5 3 0 0 0 0 0 0 0 0 5 0 100 100 100 100 100 98 98 100 100 100 100 100
100 100 100 100 100 100 100 100 100 100 100 100 100 100 100 100 100 100 100 100 92 80 2 0 0 0 0 0 0 0 0 0 0 4 5 5 100 100 100 100 100 100 100 100 100 100 100
100 100 100 100 100 100 100 100 100 100 100 100 100 100 100 100 100 100 100 72 13 0 0 2 3 0 0 0 0 0 0 0 0 0 4 43 0 100 100 100 100 100 99 99 100 100 100
100 100 100 100 100 100 100 100 100 100 100 100 100 100 100 100 100 92 80 10 12 3 5 3 0 0 0 0 0 0 0 0 0 4 1 0 1 56 100 100 100 100 100 100 100 100 100
100 100 100 100 100 100 100 100 100 100 100 100 100 100 100 83 100 95 55 5 8 21 16 2 4 0 0 0 0 0 0 0 0 0 0 0 0 0 37 100 100 100 100 100 100 100 100
100 100 100 100 100 100 100 100 100 100 100 100 100 100 100 64 36 18 99 100 96 49 6 2 0 0 0 0 0 0 0 0 2 55 54 0 7 5 3 4 100 100 100 100 100 100 100
100 100 100 100 100 100 100 100 100 100 100 100 100 100 100 100 100 100 99 100 81 20 1 0 0 0 0 0 0 0 0 2 3 28 62 80 61 92 20 24 80 92 100 100 100 88 100
100 100 100 100 100 100 100 100 100 100 100 100 100 100 100 100 92 100 5 56 5 5 2 1 0 0 0 0 0 0 0 24 53 34 1 0 84 99 100 89 88 83 18 100 100 100 6
100 100 100 100 100 100 100 100 100 100 100 100 98 100 86 100 20 6 5 5 5 5 5 0 0 0 0 0 0 2 69 100 100 66 32 100 2 92 100 100 100 100 100 20 100 100 88
100 100 100 100 100 100 100 100 100 100 100 100 100 96 44 32 5 5 5 5 5 4 0 2 0 0 0 2 0 5 92 35 99 96 89 51 92 94 100 24 75 100 100 26 100 100 100
100 100 100 100 100 100 100 100 100 100 100 99 100 100 99 60 39 9 5 5 5 0 0 0 0 0 0 5 4 5 50 19 100 100 100 88 99 42 57 36 25 99 100 95 100 100 100
100 100 100 100 100 100 100 100 100 100 100 100 100 100 100 100 57 6 5 7 1 0 5 2 0 4 5 5 5 27 56 14 100 100 100 100 100 100 100 100 100 100 100 100 100 100 100
100 100 100 100 100 100 100 100 100 100 100 99 100 26 100 100 75 49 5 5 5 3 5 5 5 8 88 81 5 59 56 99 100 100 100 100 99 100 100 100 100 97 100 100 100 100 100
100 100 100 100 100 100 100 100 100 100 92 100 50 34 98 81 98 15 5 5 5 5 5 5 87 99 99 93 50 100 100 100 99 100 100 100 100 100 97 100 100 93 100 100 100 100 100
100 100 100 100 100 100 100 100 100 100 100 100 44 77 84 66 20 62 5 8 5 5 5 5 20 22 100 60 36 100 100 90 96 100 91 100 99 100 100 100 100 100 96 90 100 100 100
100 100 100 100 100 100 100 100 100 100 100 100 100 96 64 94 85 68 51 5 8 35 6 43 5 97 100 56 5 77 59 3 91 100 100 100 100 100 96 100 100 100 100 100 50 71 96
100 100 100 100 100 100 100 100 100 100 100 100 100 100 64 75 95 66 68 71 96 53 5 5 96 9 99 66 95 96 18 3 19 99 100 100 100 89 88 100 100 100 100 100 100 40 99
100 100 100 100 100 100 100 100 100 100 100 100 100 100 100 100 97 30 67 100 100 71 55 5 5 5 5 5 5 5 1 0 52 86 100 100 100 100 92 100 100 100 100 100 100 100 2
100 100 100 100 100 100 100 100 100 100 100 92 100 100 96 97 86 73 98 100 100 100 100 6 5 5 4 4 0 0 0 5 80 100 100 100 100 100 100 100 100 100 100 100 100 100 100
100 100 100 100 100 100 100 100 100 100 100 100 100 100 100 100 100 100 100 100 100 100 75 5 5 5 5 5 10 17 35 94 100 100 100 100 100 100 100 100 100 100 100 100 100 100 100
100 100 100 100 100 100 100 100 100 100 100 100 100 100 100 100 100 100 100 100 100 84 80 77 90 48 5 19 96 88 100 92 100 100 100 97 100 100 100 100 100 100 92 100 100 100 100
100 100 100 100 100 100 100 100 100 100 100 100 100 100 100 100 100 100 100 100 82 67 87 98 100 64 10 90 90 100 100 70 99 100 100 89 100 100 100 100 100 95 100 100 100 100 100
100 100 100 100 100 100 100 100 100 100 100 100 100 100 100 100 100 100 84 79 68 73 76 100 62 81 81 93 100 100 100 100 99 100 100 100 100 100 100 100 96 100 100 100 100 100 100
100 100 100 100 100 100 100 100 100 100 100 100 100 100 100 100 99 43 53 91 90 97 100 96 99 35 100 93 98 99 100 100 98 100 71 100 100 100 100 100 99 100 100 100 100 100 100

GFSGBSN_prec_cloud_123.txt.gz
Cloud_Cover
74 99 83 100 96 100 100 100 100 100 100 100 100 100 100 100 100 85 100 100 100 100 100 100 100 100 100 64 80 77 74 38 88 7 25 52 100 98 100 97 9 0 0 0 0 0 0
100 100 100 100 100 100 100 100 100 100 100 100 100 100 100 100 100 100 100 100 100 100 94 46 55 39 30 49 19 72 100 100 100 100 100 100 100 100 100 99 35 5 0 0 0 0 0
100 97 100 100 100 100 100 100 100 100 100 100 100 100 100 100 100 100 100 100 100 100 100 92 99 100 99 48 82 100 100 100 100 100 100 100 100 100 46 6 0 0 0 0 0 0 0
100 100 100 100 100 100 100 100 100 100 100 100 100 100 100 100 100 100 100 100 100 100 100 100 100 100 100 100 100 100 100 100 100 100 100 100 100 28 5 0 0 0 0 0 0 0 0
100 100 100 99 100 100 100 100 100 100 100 100 100 100 100 100 100 100 100 100 100 100 100 100 100 100 100 100 100 100 100 100 100 100 100 100 29 11 0 0 0 0 0 0 0 0 0
100 100 100 100 100 100 100 100 100 100 100 100 100 100 100 100 100 100 100 100 100 100 100 100 100 100 100 100 100 100 100 100 100 69 10 5 0 0 0 0 0 0 0 0 0 0 2
100 100 100 100 100 100 100 100 100 100 100 100 100 100 100 100 100 100 100 100 100 100 100 100 100 100 100 100 100 100 100 66 5 15 37 3 0 0 0 0 0 0 0 0 0 0 0
100 100 100 100 100 100 100 100 100 100 100 100 100 100 100 100 100 100 100 100 100 100 100 100 100 100 100 100 100 100 100 98 84 10 0 0 0 0 0 0 0 0 0 0 0 0 0
100 100 100 100 100 100 100 100 100 100 100 100 100 100 100 100 100 100 100 100 100 100 100 100 100 100 53 25 12 5 5 1 0 0 0 0 0 0 0 0 0 0 0 0 0 0 0
100 100 100 100 100 100 100 100 100 100 100 100 100 100 100 100 99 100 100 98 100 84 77 43 22 45 81 5 1 0 0 0 0 0 0 0 0 0 0 0 0 0 1 2 0 0 0
100 100 100 100 100 100 100 100 100 100 100 100 100 100 100 100 100 100 100 100 100 99 6 2 5 5 5 81 6 4 4 0 0 0 0 0 0 0 0 0 58 44 0 0 1 0 6
100 100 100 100 100 100 100 100 100 100 100 100 100 100 100 100 100 100 100 100 100 100 83 38 26 5 5 4 5 5 0 0 0 0 0 0 0 0 1 0 10 6 35 0 0 2 94
100 100 100 100 100 100 99 100 100 100 100 100 100 100 100 100 100 100 100 100 100 100 100 100 67 5 5 3 0 2 1 0 0 0 0 0 0 0 0 0 0 3 38 81 46 8 24
100 100 100 100 100 100 100 100 100 100 100 100 100 100 100 100 100 100 100 100 100 100 100 100 97 100 84 5 5 3 0 0 0 0 0 5 6 0 0 13 13 8 36 100 100 73 4
100 100 100 100 100 100 100 100 100 100 100 100 100 100 100 100 100 100 100 100 100 100 100 11 46 70 72 3 0 0 0 0 0 0 2 6 3 0 0 0 100 98 100 100 100 70 23
100 100 100 100 100 100 100 100 100 100 100 100 100 100 100 100 100 100 100 100 100 100 98 100 96 16 5 3 0 0 0 0 0 0 94 39 17 0 0 62 100 100 100 100 83 85 2
100 100 100 100 100 100 100 100 100 100 100 100 100 100 100 100 100 100 100 100 100 100 100 100 46 19 5 5 0 0 0 0 18 98 4 0 1 0 59 73 41 100 100 100 100 100 42
100 100 100 100 100 100 100 100 100 100 100 100 100 100 100 100 100 100 100 100 100 100 100 40 10 5 5 3 0 0 4 2 78 35 1 5 1 2 1 93 62 94 98 100 100 100 70
100 100 100 100 100 100 100 100 100 100 100 100 100 100 100 100 100 100 100 100 100 100 90 5 5 5 1 1 1 5 1 3 4 85 88 31 2 25 10 100 13 98 100 100 100 100 100
100 100 100 100 100 100 100 100 100 100 100 100 100 100 100 100 100 100 100 100 100 100 89 8 5 5 0 0 19 65 5 1 1 54 47 0 4 31 69 90 77 96 100 100 100 100 88
100 100 100 100 100 100 100 100 100 100 100 100 100 100 100 100 100 100 100 100 100 100 69 5 5 4 1 4 80 47 5 1 0 0 0 0 2 0 3 98 67 100 100 100 100 100 92
100 100 100 100 100 100 100 100 100 100 100 100 100 100 100 100 100 100 100 100 100 100 75 5 5 5 4 5 5 5 3 0 0 0 0 0 5 5 4 88 100 100 100 100 100 100 82
100 100 100 100 100 100 100 100 100 100 100 100 100 100 100 100 100 100 100 100 100 76 50 5 5 4 5 5 3 5 5 0 0 0 0 4 67 7 82 100 100 100 100 100 100 100 100
100 100 100 100 100 100 100 100 100 100 100 100 100 100 100 100 100 100 100 100 100 100 97 58 5 5 5 5 11 5 1 0 0 0 30 26 27 97 79 100 100 100 100 100 100 100 100
100 100 100 100 100 100 100 100 100 100 100 100 100 100 100 100 100 100 100 100 100 85 10 6 5 5 5 24 9 5 4 5 2 57 38 37 78 96 78 100 100 100 100 100 100 100 100
100 100 100 100 100 100 100 100 100 100 100 100 100 100 100 98 88 100 99 100 45 17 8 5 23 92 5 30 5 5 5 1 12 11 94 100 100 43 41 100 100 100 100 100 100 100 100
100 100 100 100 100 100 100 100 100 100 100 100 100 100 100 100 100 100 99 88 53 23 15 33 99 96 83 28 15 89 11 4 16 24 41 8 65 12 100 100 100 97 100 100 100 100 100
100 100 100 100 100 100 100 100 100 100 100 100 100 100 100 100 90 100 54 47 43 54 77 93 83 96 71 75 98 52 35 12 53 58 89 51 94 7 100 100 85 73 100 100 100 100 100
100 100 100 100 100 100 100 100 100 100 100 100 100 100 100 100 100 100 91 100 87 99 100 100 96 76 100 96 100 88 17 5 6 41 5 89 74 88 96 100 100 100 100 100 100 100 100

GFSGBSN_prec_cloud_126.txt.gz
Cloud_Cover
100 96 100 100 100 93 92 100 100 82 100 100 100 100 100 100 100 100 100 100 99 57 6 28 89 63 43 63 31 5 24 82 5 5 5 5 58 100 100 100 100 100 100 100 100 99 93
100 100 100 100 100 99 100 100 100 100 87 100 100 100 100 100 100 100 100 100 100 100 40 43 94 100 19 100 46 10 2 4 5 5 6 20 100 96 100 100 100 100 100 100 100 56 5
100 100 100 100 57 38 100 46 100 100 100 100 100 100 100 100 100 100 100 100 100 100 100 100 96 34 26 53 41 43 56 86 98 98 100 100 100 100 100 100 100 100 72 10 40 3 0
100 100 100 100 100 45 100 100 100 100 100 95 100 100 100 99 90 78 100 100 100 100 100 100 100 96 99 100 100 100 94 29 93 100 100 100 100 100 100 98 18 3 0 0 0 0 0
100 100 100 100 100 100 100 100 100 90 100 100 75 100 100 100 99 97 100 100 100 100 100 100 100 100 100 77 30 73 100 100 100 100 100 100 100 100 44 5 5 5 0 0 0 0 0
100 100 100 100 100 100 100 100 100 100 100 100 100 100 100 100 100 100 100 100 100 100 100 100 100 100 100 100 100 100 100 100 100 100 100 100 100 89 34 7 3 0 0 0 0 0 0
100 100 100 100 100 100 100 100 100 100 100 100 100 100 100 100 100 100 100 96 100 100 100 100 100 100 100 100 100 100 100 100 100 100 93 13 4 0 0 0 0 0 0 0 0 0 0
100 100 100 100 100 100 100 78 46 100 100 100 100 100 100 100 100 99 97 100 100 100 100 100 100 100 100 100 100 100 100 100 98 77 5 1 18 0 0 0 0 0 0 0 0 0 0
100 100 100 100 100 100 100 100 100 100 100 100 100 100 100 100 100 100 99 100 100 100 100 100 100 100 100 100 100 99 100 27 5 5 1 0 0 0 0 0 0 0 0 0 0 0 0
100 100 100 100 100 100 100 90 100 100 100 100 100 100 100 100 100 100 100 100 100 99 99 92 100 98 68 99 59 21 5 5 4 0 0 0 0 0 0 0 0 0 0 0 0 0 0
100 100 100 100 100 100 100 100 100 100 100 100 100 82 100 100 100 100 100 100 100 100 98 100 100 100 100 68 7 28 55 28 5 5 2 0 0 0 0 0 0 0 0 0 0 0 2
100 100 100 100 100 100 99 100 100 100 98 69 97 100 100 100 100 100 100 100 100 100 82 93 100 100 100 23 28 84 27 67 5 5 5 4 0 0 0 0 0 0 1 0 0 0 83
100 100 100 100 100 100 100 100 100 100 78 78 85 95 100 100 100 100 100 100 100 100 100 100 100 100 21 97 99 100 100 55 5 5 4 0 0 0 0 0 0 0 4 74 9 4 4
100 100 100 100 100 100 100 100 100 100 100 95 91 74 100 100 100 100 100 100 100 100 100 100 100 89 100 100 100 68 16 5 5 0 0 0 0 0 0 0 0 0 100 100 100 100 33
100 100 100 100 100 100 100 100 100 100 100 100 100 100 100 100 100 100 100 100 100 100 100 100 100 100 100 100 99 89 5 5 0 0 0 0 0 0 0 0 0 4 84 98 100 59 100
100 100 100 100 100 100 100 100 100 100 100 100 100 100 100 100 100 100 100 100 100 100 100 100 100 100 100 100 100 97 8 0 0 0 3 1 0 0 0 0 0 80 69 53 88 100 100
100 100 100 100 100 100 100 100 100 100 100 100 100 100 100 100 100 100 100 100 100 100 100 100 100 100 100 100 73 18 2 0 0 0 1 0 2 0 0 0 3 38 91 100 98 100 100
100 100 100 100 100 100 100 100 100 100 100 100 100 100 100 100 100 100 100 100 100 100 100 100 100 100 100 89 32 26 5 5 5 0 0 0 1 2 0 0 1 79 74 100 100 68 94
100 100 100 100 100 100 100 100 100 100 100 100 100 100 100 100 100 100 100 100 100 100 100 100 100 100 100 100 99 75 6 5 0 0 0 0 0 3 0 0 0 5 10 98 94 100 100
100 100 100 100 100 100 100 100 100 100 100 100 100 100 100 100 100 100 100 100 100 100 100 100 100 100 100 100 100 83 5 4 0 0 0 0 1 2 28 2 24 5 98 90 100 100 100
100 100 100 100 100 100 100 100 100 100 100 100 100 100 100 100 100 100 100 100 100 100 100 100 100 100 100 100 84 5 5 1 0 0 0 0 3 2 2 2 50 58 100 100 100 100 100
100 100 100 100 100 100 100 100 100 100 100 100 100 100 100 100 100 100 100 100 100 100 100 100 100 100 100 34 33 39 4 0 0 0 0 0 0 3 0 4 6 93 100 100 100 100 86
100 100 100 100 100 100 100 100 100 100 100 100 100 100 100 100 100 100 100 100 100 100 100 100 100 100 100 96 7 5 0 0 0 0 0 0 4 29 4 2 80 98 98 100 100 100 100
100 100 100 100 100 100 100 100 100 100 100 100 100 100 100 100 100 100 94 100 100 100 100 100 92 62 100 32 5 1 0 0 0 3 10 3 60 87 5 5 47 99 100 100 100 100 100
100 100 100 100 100 100 100 100 100 100 100 100 100 100 100 100 100 100 100 100 100 100 100 100 100 100 16 13 5 4 5 4 0 3 5 75 88 85 98 80 51 100 94 100 100 100 96
100 100 100 100 100 100 100 100 100 100 100 100 100 100 100 100 100 100 100 100 100 100 99 24 99 26 17 8 5 5 5 3 3 5 16 83 5 6 87 59 97 100 100 100 100 100 100
100 100 100 100 100 100 100 100 100 100 100 100 100 100 100 100 100 100 100 100 100 100 100 99 99 100 7 5 5 5 5 62 87 12 5 26 45 62 98 73 100 96 67 100 100 100 100
100 100 100 100 100 100 100 100 100 100 100 100 100 100 100 100 100 100 100 100 100 100 100 100 100 63 25 5 8 6 9 29 88 46 19 30 73 91 10 58 87 33 95 100 100 100 100
100 100 100 100 100 100 100 100 100 100 100 100 100 100 100 100 100 100 100 100 100 100 100 100 95 35 93 5 25 5 25 79 69 5 37 8 5 9 24 23 76 99 100 100 100 100 100